Observation data for Smyer on 11/19/2019      Previous  Date       Current Mesonet Observations  Soil Data  Daily Summary Page  Observations in Plain Language
KSM2 190600Z 18001KT 05/M01 A2999 RMK A01 T00541010  RH  063%=      5-min Rain = 0
KSM2 190601Z 18001KT 05/M01 A2999 RMK A01 T00541009  RH  064%=      5-min Rain = 0
KSM2 190602Z 18001KT 06/M01 A2999 RMK A01 T00551007  RH  064%=      5-min Rain = 0
KSM2 190603Z 18001KT 06/M01 A2999 RMK A01 T00561007  RH  064%=      5-min Rain = 0
KSM2 190604Z 18001KT 06/M01 A2999 RMK A01 T00561006  RH  064%=      5-min Rain = 0
KSM2 190605Z 18000KT 06/M01 A2999 RMK A01 T00561006  RH  064%=      5-min Rain = 0
KSM2 190606Z 00000KT 06/M01 A2999 RMK A01 T00561007  RH  064%=      5-min Rain = 0
KSM2 190607Z 00000KT 06/M01 A2999 RMK A01 T00561008  RH  063%=      5-min Rain = 0
KSM2 190608Z 00000KT 06/M01 A2999 RMK A01 T00561008  RH  063%=      5-min Rain = 0
KSM2 190609Z 00000KT 06/M01 A2999 RMK A01 T00561009  RH  063%=      5-min Rain = 0
KSM2 190610Z 00000KT 06/M01 A2999 RMK A01 T00551011  RH  063%=      5-min Rain = 0
KSM2 190611Z 00000KT 05/M01 A2999 RMK A01 T00541012  RH  063%=      5-min Rain = 0
KSM2 190612Z 00000KT 05/M01 A2999 RMK A01 T00521013  RH  063%=      5-min Rain = 0
KSM2 190613Z 00000KT 05/M01 A2999 RMK A01 T00511013  RH  063%=      5-min Rain = 0
KSM2 190614Z 00000KT 05/M01 A2999 RMK A01 T00501013  RH  064%=      5-min Rain = 0
KSM2 190615Z 00000KT 05/M01 A2999 RMK A01 T00491012  RH  064%=      5-min Rain = 0
KSM2 190616Z 00000KT 05/M01 A2999 RMK A01 T00491011  RH  065%=      5-min Rain = 0
KSM2 190617Z 00000KT 05/M01 A2999 RMK A01 T00481010  RH  066%=      5-min Rain = 0
KSM2 190618Z 00000KT 05/M01 A2999 RMK A01 T00481009  RH  067%=      5-min Rain = 0
KSM2 190619Z 00000KT 05/M01 A2999 RMK A01 T00481008  RH  067%=      5-min Rain = 0
KSM2 190620Z 00000KT 05/M01 A2999 RMK A01 T00491007  RH  067%=      5-min Rain = 0
KSM2 190621Z 00000KT 05/M01 A2999 RMK A01 T00501007  RH  066%=      5-min Rain = 0
KSM2 190622Z 00000KT 05/M01 A2999 RMK A01 T00501008  RH  066%=      5-min Rain = 0
KSM2 190623Z 11000KT 05/M01 A2999 RMK A01 T00511009  RH  065%=      5-min Rain = 0
KSM2 190624Z 11000KT 05/M01 A2999 RMK A01 T00511009  RH  065%=      5-min Rain = 0
KSM2 190625Z 11000KT 05/M01 A2999 RMK A01 T00511010  RH  065%=      5-min Rain = 0
KSM2 190626Z 11000KT 05/M01 A2999 RMK A01 T00511010  RH  065%=      5-min Rain = 0
KSM2 190627Z 11000KT 05/M01 A2999 RMK A01 T00501010  RH  065%=      5-min Rain = 0
KSM2 190628Z 11000KT 05/M01 A2999 RMK A01 T00501010  RH  065%=      5-min Rain = 0
KSM2 190629Z 11001KT 05/M01 A2999 RMK A01 T00501010  RH  065%=      5-min Rain = 0
KSM2 190630Z 11001KT 05/M01 A2999 RMK A01 T00501010  RH  065%=      5-min Rain = 0
KSM2 190631Z 11001KT 05/M01 A2999 RMK A01 T00501010  RH  065%=      5-min Rain = 0
KSM2 190632Z 12001KT 05/M01 A2999 RMK A01 T00491010  RH  065%=      5-min Rain = 0
KSM2 190633Z 12000KT 05/M01 A2999 RMK A01 T00491009  RH  066%=      5-min Rain = 0
KSM2 190634Z 13000KT 05/M01 A2999 RMK A01 T00501008  RH  066%=      5-min Rain = 0
KSM2 190635Z 00000KT 05/M01 A2999 RMK A01 T00521006  RH  066%=      5-min Rain = 0
KSM2 190636Z 17000KT 05/M00 A2999 RMK A01 T00541004  RH  066%=      5-min Rain = 0
KSM2 190637Z 17000KT 06/M00 A2999 RMK A01 T00551003  RH  066%=      5-min Rain = 0
KSM2 190638Z 00000KT 06/M00 A2999 RMK A01 T00561004  RH  066%=      5-min Rain = 0
KSM2 190639Z 00000KT 06/M01 A2999 RMK A01 T00561005  RH  065%=      5-min Rain = 0
KSM2 190640Z 25001KT 06/M01 A2999 RMK A01 T00561005  RH  065%=      5-min Rain = 0
KSM2 190641Z 26001KT 06/M01 A2999 RMK A01 T00561005  RH  065%=      5-min Rain = 0
KSM2 190642Z 26001KT 06/M01 A2999 RMK A01 T00561005  RH  065%=      5-min Rain = 0
KSM2 190643Z 26001KT 06/M01 A2999 RMK A01 T00551005  RH  065%=      5-min Rain = 0
KSM2 190644Z 26001KT 06/M01 A2999 RMK A01 T00551006  RH  065%=      5-min Rain = 0
KSM2 190645Z 26001KT 06/M01 A2999 RMK A01 T00551007  RH  064%=      5-min Rain = 0
KSM2 190646Z 26001KT 06/M01 A2999 RMK A01 T00561006  RH  064%=      5-min Rain = 0
KSM2 190647Z 26001KT 06/M01 A2999 RMK A01 T00561007  RH  064%=      5-min Rain = 0
KSM2 190648Z 26001KT 06/M01 A2999 RMK A01 T00561009  RH  063%=      5-min Rain = 0
KSM2 190649Z 26001KT 06/M01 A2999 RMK A01 T00561011  RH  062%=      5-min Rain = 0
KSM2 190650Z 26001KT 06/M01 A2999 RMK A01 T00551011  RH  062%=      5-min Rain = 0
KSM2 190651Z 25001KT 06/M01 A2999 RMK A01 T00551010  RH  063%=      5-min Rain = 0
KSM2 190652Z 24001KT 06/M01 A2999 RMK A01 T00551010  RH  063%=      5-min Rain = 0
KSM2 190653Z 23002KT 06/M01 A2999 RMK A01 T00551010  RH  063%=      5-min Rain = 0
KSM2 190654Z 23002KT 06/M01 A2999 RMK A01 T00561008  RH  063%=      5-min Rain = 0
KSM2 190655Z 23003KT 06/M01 A2999 RMK A01 T00561008  RH  063%=      5-min Rain = 0
KSM2 190656Z 23003KT 06/M01 A2999 RMK A01 T00561008  RH  063%=      5-min Rain = 0
KSM2 190657Z 23003KT 06/M01 A2999 RMK A01 T00551008  RH  064%=      5-min Rain = 0
KSM2 190658Z 24003KT 05/M01 A2999 RMK A01 T00531007  RH  065%=      5-min Rain = 0
KSM2 190659Z 23003KT 05/M01 A2999 RMK A01 T00531006  RH  066%=      5-min Rain = 0
KSM2 190700Z 23003KT 05/M01 A2999 RMK A01 T00541006  RH  065%=      5-min Rain = 0
KSM2 190701Z 22003KT 05/M01 A2999 RMK A01 T00531006  RH  065%=      5-min Rain = 0
KSM2 190702Z 22003KT 05/M01 A2999 RMK A01 T00541007  RH  065%=      5-min Rain = 0
KSM2 190703Z 22003KT 05/M01 A2999 RMK A01 T00541007  RH  065%=      5-min Rain = 0
KSM2 190704Z 22003KT 05/M01 A2999 RMK A01 T00531006  RH  065%=      5-min Rain = 0
KSM2 190705Z 22003KT 05/M01 A2999 RMK A01 T00521007  RH  066%=      5-min Rain = 0
KSM2 190706Z 22003KT 05/M01 A2999 RMK A01 T00501008  RH  066%=      5-min Rain = 0
KSM2 190707Z 23003KT 05/M01 A2999 RMK A01 T00501007  RH  066%=      5-min Rain = 0
KSM2 190708Z 23003KT 05/M01 A2999 RMK A01 T00511007  RH  067%=      5-min Rain = 0
KSM2 190709Z 23003KT 05/M01 A2999 RMK A01 T00501007  RH  066%=      5-min Rain = 0
KSM2 190710Z 23003KT 05/M01 A2999 RMK A01 T00511007  RH  066%=      5-min Rain = 0
KSM2 190711Z 22003KT 05/M01 A2999 RMK A01 T00511008  RH  066%=      5-min Rain = 0
KSM2 190712Z 22003KT 05/M01 A2999 RMK A01 T00511008  RH  066%=      5-min Rain = 0
KSM2 190713Z 22003KT 05/M01 A2999 RMK A01 T00521007  RH  066%=      5-min Rain = 0
KSM2 190714Z 22002KT 05/M01 A2999 RMK A01 T00531006  RH  066%=      5-min Rain = 0
KSM2 190715Z 23002KT 05/M01 A2999 RMK A01 T00531007  RH  065%=      5-min Rain = 0
KSM2 190716Z 23002KT 05/M01 A2999 RMK A01 T00541008  RH  065%=      5-min Rain = 0
KSM2 190717Z 24002KT 05/M01 A2999 RMK A01 T00541008  RH  064%=      5-min Rain = 0
KSM2 190718Z 24003KT 05/M01 A2999 RMK A01 T00521009  RH  064%=      5-min Rain = 0
KSM2 190719Z 24003KT 05/M01 A2999 RMK A01 T00521010  RH  065%=      5-min Rain = 0
KSM2 190720Z 24003KT 05/M01 A2999 RMK A01 T00511009  RH  065%=      5-min Rain = 0
KSM2 190721Z 24003KT 05/M01 A2999 RMK A01 T00501010  RH  065%=      5-min Rain = 0
KSM2 190722Z 23003KT 05/M01 A2999 RMK A01 T00491010  RH  066%=      5-min Rain = 0
KSM2 190723Z 23003KT 05/M01 A2999 RMK A01 T00481010  RH  066%=      5-min Rain = 0
KSM2 190724Z 23002KT 05/M01 A2999 RMK A01 T00481010  RH  066%=      5-min Rain = 0
KSM2 190725Z 23002KT 05/M01 A2999 RMK A01 T00471010  RH  066%=      5-min Rain = 0
KSM2 190726Z 23002KT 05/M01 A2999 RMK A01 T00471011  RH  066%=      5-min Rain = 0
KSM2 190727Z 23002KT 05/M01 A2999 RMK A01 T00471011  RH  066%=      5-min Rain = 0
KSM2 190728Z 23002KT 05/M01 A2999 RMK A01 T00471010  RH  067%=      5-min Rain = 0
KSM2 190729Z 23002KT 05/M01 A2999 RMK A01 T00471010  RH  067%=      5-min Rain = 0
KSM2 190730Z 23002KT 05/M01 A2999 RMK A01 T00471010  RH  067%=      5-min Rain = 0
KSM2 190731Z 22002KT 05/M01 A2999 RMK A01 T00461009  RH  067%=      5-min Rain = 0
KSM2 190732Z 22002KT 05/M01 A2999 RMK A01 T00471008  RH  067%=      5-min Rain = 0
KSM2 190733Z 22002KT 05/M01 A2999 RMK A01 T00471009  RH  067%=      5-min Rain = 0
KSM2 190734Z 22002KT 05/M01 A2999 RMK A01 T00471009  RH  067%=      5-min Rain = 0
KSM2 190735Z 23002KT 05/M01 A2999 RMK A01 T00471009  RH  067%=      5-min Rain = 0
KSM2 190736Z 23002KT 05/M01 A2999 RMK A01 T00471008  RH  067%=      5-min Rain = 0
KSM2 190737Z 23003KT 05/M01 A2999 RMK A01 T00481008  RH  067%=      5-min Rain = 0
KSM2 190738Z 23003KT 05/M01 A2999 RMK A01 T00491008  RH  067%=      5-min Rain = 0
KSM2 190739Z 22003KT 05/M01 A2999 RMK A01 T00501008  RH  067%=      5-min Rain = 0
KSM2 190740Z 21003KT 05/M01 A2999 RMK A01 T00511007  RH  066%=      5-min Rain = 0
KSM2 190741Z 20003KT 05/M01 A2999 RMK A01 T00521007  RH  066%=      5-min Rain = 0
KSM2 190742Z 20003KT 05/M01 A2999 RMK A01 T00541007  RH  065%=      5-min Rain = 0
KSM2 190743Z 19003KT 06/M01 A2999 RMK A01 T00551007  RH  065%=      5-min Rain = 0
KSM2 190744Z 19003KT 06/M01 A2999 RMK A01 T00551007  RH  065%=      5-min Rain = 0
KSM2 190745Z 19002KT 06/M01 A2999 RMK A01 T00551007  RH  065%=      5-min Rain = 0
KSM2 190746Z 19002KT 06/M01 A2999 RMK A01 T00551007  RH  064%=      5-min Rain = 0
KSM2 190747Z 20002KT 06/M01 A2999 RMK A01 T00551007  RH  064%=      5-min Rain = 0
KSM2 190748Z 20002KT 06/M01 A2999 RMK A01 T00551007  RH  064%=      5-min Rain = 0
KSM2 190749Z 20002KT 05/M01 A2999 RMK A01 T00521008  RH  065%=      5-min Rain = 0
KSM2 190750Z 20002KT 05/M01 A2999 RMK A01 T00501008  RH  066%=      5-min Rain = 0
KSM2 190751Z 20002KT 05/M01 A2999 RMK A01 T00491008  RH  066%=      5-min Rain = 0
KSM2 190752Z 20003KT 05/M01 A2999 RMK A01 T00481009  RH  066%=      5-min Rain = 0
KSM2 190753Z 20002KT 05/M01 A2999 RMK A01 T00481009  RH  066%=      5-min Rain = 0
KSM2 190754Z 20002KT 05/M01 A2999 RMK A01 T00481009  RH  066%=      5-min Rain = 0
KSM2 190755Z 20002KT 05/M01 A2999 RMK A01 T00471010  RH  067%=      5-min Rain = 0
KSM2 190756Z 20002KT 05/M01 A2999 RMK A01 T00471009  RH  067%=      5-min Rain = 0
KSM2 190757Z 20002KT 05/M01 A2999 RMK A01 T00471009  RH  067%=      5-min Rain = 0
KSM2 190758Z 20002KT 05/M01 A2999 RMK A01 T00481009  RH  067%=      5-min Rain = 0
KSM2 190759Z 20002KT 05/M01 A2999 RMK A01 T00491009  RH  066%=      5-min Rain = 0
KSM2 190800Z 21002KT 05/M01 A2999 RMK A01 T00501009  RH  066%=      5-min Rain = 0
KSM2 190801Z 22002KT 05/M01 A2999 RMK A01 T00501009  RH  066%=      5-min Rain = 0
KSM2 190802Z 24002KT 05/M01 A2999 RMK A01 T00501009  RH  066%=      5-min Rain = 0
KSM2 190803Z 24002KT 05/M01 A2999 RMK A01 T00501009  RH  065%=      5-min Rain = 0
KSM2 190804Z 24002KT 05/M01 A2999 RMK A01 T00501010  RH  065%=      5-min Rain = 0
KSM2 190805Z 24002KT 05/M01 A2999 RMK A01 T00501010  RH  065%=      5-min Rain = 0
KSM2 190806Z 24002KT 05/M01 A2999 RMK A01 T00501010  RH  065%=      5-min Rain = 0
KSM2 190807Z 24002KT 05/M01 A2999 RMK A01 T00491011  RH  065%=      5-min Rain = 0
KSM2 190808Z 24001KT 05/M01 A30 RMK A01 T00491011  RH  065%=      5-min Rain = 0
KSM2 190809Z 24001KT 05/M01 A30 RMK A01 T00481011  RH  065%=      5-min Rain = 0
KSM2 190810Z 24001KT 05/M01 A30 RMK A01 T00481011  RH  065%=      5-min Rain = 0
KSM2 190811Z 24001KT 05/M01 A30 RMK A01 T00471012  RH  065%=      5-min Rain = 0
KSM2 190812Z 24002KT 05/M01 A30 RMK A01 T00471012  RH  066%=      5-min Rain = 0
KSM2 190813Z 24002KT 05/M01 A30 RMK A01 T00451014  RH  065%=      5-min Rain = 0
KSM2 190814Z 25002KT 04/M02 A30 RMK A01 T00441015  RH  065%=      5-min Rain = 0
KSM2 190815Z 25002KT 04/M02 A30 RMK A01 T00431015  RH  066%=      5-min Rain = 0
KSM2 190816Z 25002KT 04/M01 A30 RMK A01 T00431014  RH  066%=      5-min Rain = 0
KSM2 190817Z 25002KT 04/M01 A30 RMK A01 T00431014  RH  067%=      5-min Rain = 0
KSM2 190818Z 25002KT 04/M01 A30 RMK A01 T00431014  RH  067%=      5-min Rain = 0
KSM2 190819Z 24002KT 04/M01 A30 RMK A01 T00421014  RH  067%=      5-min Rain = 0
KSM2 190820Z 24002KT 04/M01 A30 RMK A01 T00411014  RH  067%=      5-min Rain = 0
KSM2 190821Z 23002KT 04/M02 A30 RMK A01 T00401015  RH  067%=      5-min Rain = 0
KSM2 190822Z 23002KT 04/M02 A30 RMK A01 T00401015  RH  068%=      5-min Rain = 0
KSM2 190823Z 23002KT 04/M01 A30 RMK A01 T00391014  RH  068%=      5-min Rain = 0
KSM2 190824Z 23002KT 04/M01 A30 RMK A01 T00391013  RH  069%=      5-min Rain = 0
KSM2 190825Z 23002KT 04/M01 A30 RMK A01 T00391012  RH  069%=      5-min Rain = 0
KSM2 190826Z 24002KT 04/M01 A30 RMK A01 T00391012  RH  069%=      5-min Rain = 0
KSM2 190827Z 23003KT 04/M01 A30 RMK A01 T00401011  RH  070%=      5-min Rain = 0
KSM2 190828Z 23003KT 04/M01 A30 RMK A01 T00391010  RH  070%=      5-min Rain = 0
KSM2 190829Z 22003KT 04/M01 A30 RMK A01 T00401010  RH  070%=      5-min Rain = 0
KSM2 190830Z 22003KT 04/M01 A30 RMK A01 T00401009  RH  070%=      5-min Rain = 0
KSM2 190831Z 22003KT 04/M01 A30 RMK A01 T00421008  RH  070%=      5-min Rain = 0
KSM2 190832Z 22003KT 04/M01 A30 RMK A01 T00441008  RH  069%=      5-min Rain = 0
KSM2 190833Z 22003KT 05/M01 A30 RMK A01 T00461008  RH  068%=      5-min Rain = 0
KSM2 190834Z 21003KT 05/M01 A30 RMK A01 T00471009  RH  067%=      5-min Rain = 0
KSM2 190835Z 21002KT 05/M01 A30 RMK A01 T00471010  RH  066%=      5-min Rain = 0
KSM2 190836Z 21002KT 05/M01 A2999 RMK A01 T00481010  RH  066%=      5-min Rain = 0
KSM2 190837Z 21002KT 05/M01 A2999 RMK A01 T00491010  RH  065%=      5-min Rain = 0
KSM2 190838Z 21003KT 05/M01 A30 RMK A01 T00511010  RH  065%=      5-min Rain = 0
KSM2 190839Z 20003KT 05/M01 A2999 RMK A01 T00521009  RH  065%=      5-min Rain = 0
KSM2 190840Z 20003KT 05/M01 A2999 RMK A01 T00531009  RH  064%=      5-min Rain = 0
KSM2 190841Z 21002KT 05/M01 A2999 RMK A01 T00541009  RH  064%=      5-min Rain = 0
KSM2 190842Z 20003KT 06/M01 A2999 RMK A01 T00551009  RH  063%=      5-min Rain = 0
KSM2 190843Z 20003KT 06/M01 A2999 RMK A01 T00561009  RH  063%=      5-min Rain = 0
KSM2 190844Z 20002KT 06/M01 A2999 RMK A01 T00561010  RH  063%=      5-min Rain = 0
KSM2 190845Z 20002KT 06/M01 A2999 RMK A01 T00561009  RH  063%=      5-min Rain = 0
KSM2 190846Z 20002KT 06/M01 A2999 RMK A01 T00551009  RH  063%=      5-min Rain = 0
KSM2 190847Z 20002KT 05/M01 A2999 RMK A01 T00541010  RH  063%=      5-min Rain = 0
KSM2 190848Z 20002KT 05/M01 A2999 RMK A01 T00521011  RH  064%=      5-min Rain = 0
KSM2 190849Z 20002KT 05/M01 A2999 RMK A01 T00501012  RH  064%=      5-min Rain = 0
KSM2 190850Z 20002KT 05/M01 A2999 RMK A01 T00481012  RH  065%=      5-min Rain = 0
KSM2 190851Z 19001KT 05/M01 A2999 RMK A01 T00461012  RH  066%=      5-min Rain = 0
KSM2 190852Z 19001KT 05/M01 A2999 RMK A01 T00461011  RH  067%=      5-min Rain = 0
KSM2 190853Z 20001KT 04/M01 A2999 RMK A01 T00441011  RH  067%=      5-min Rain = 0
KSM2 190854Z 20001KT 04/M01 A2999 RMK A01 T00441010  RH  068%=      5-min Rain = 0
KSM2 190855Z 21001KT 04/M01 A2999 RMK A01 T00431010  RH  068%=      5-min Rain = 0
KSM2 190856Z 21000KT 04/M01 A2999 RMK A01 T00421011  RH  068%=      5-min Rain = 0
KSM2 190857Z 21000KT 04/M01 A2999 RMK A01 T00401012  RH  069%=      5-min Rain = 0
KSM2 190858Z 00000KT 04/M01 A2999 RMK A01 T00381013  RH  069%=      5-min Rain = 0
KSM2 190859Z 00000KT 04/M01 A2999 RMK A01 T00371014  RH  069%=      5-min Rain = 0
KSM2 190900Z 00000KT 04/M01 A2999 RMK A01 T00371013  RH  070%=      5-min Rain = 0
KSM2 190901Z 00000KT 04/M01 A2999 RMK A01 T00371013  RH  070%=      5-min Rain = 0
KSM2 190902Z 00000KT 04/M01 A2999 RMK A01 T00371012  RH  070%=      5-min Rain = 0
KSM2 190903Z 00000KT 04/M01 A2999 RMK A01 T00371012  RH  071%=      5-min Rain = 0
KSM2 190904Z 00000KT 04/M01 A2999 RMK A01 T00371011  RH  071%=      5-min Rain = 0
KSM2 190905Z 00000KT 04/M01 A2999 RMK A01 T00381011  RH  070%=      5-min Rain = 0
KSM2 190906Z 00000KT 04/M01 A2999 RMK A01 T00401009  RH  071%=      5-min Rain = 0
KSM2 190907Z 00000KT 04/M01 A2999 RMK A01 T00431008  RH  070%=      5-min Rain = 0
KSM2 190908Z 00000KT 05/M01 A2999 RMK A01 T00451008  RH  068%=      5-min Rain = 0
KSM2 190909Z 07000KT 05/M01 A2999 RMK A01 T00461009  RH  068%=      5-min Rain = 0
KSM2 190910Z 07001KT 05/M01 A2998 RMK A01 T00451010  RH  067%=      5-min Rain = 0
KSM2 190911Z 06001KT 04/M01 A2998 RMK A01 T00441010  RH  068%=      5-min Rain = 0
KSM2 190912Z 06001KT 04/M01 A2998 RMK A01 T00431010  RH  069%=      5-min Rain = 0
KSM2 190913Z 05001KT 04/M01 A2998 RMK A01 T00421010  RH  069%=      5-min Rain = 0
KSM2 190914Z 04000KT 04/M01 A2998 RMK A01 T00411010  RH  069%=      5-min Rain = 0
KSM2 190915Z 04000KT 04/M01 A2999 RMK A01 T00401011  RH  069%=      5-min Rain = 0
KSM2 190916Z 04001KT 04/M01 A2998 RMK A01 T00391010  RH  070%=      5-min Rain = 0
KSM2 190917Z 04001KT 04/M01 A2998 RMK A01 T00411010  RH  070%=      5-min Rain = 0
KSM2 190918Z 04001KT 04/M01 A2998 RMK A01 T00421010  RH  069%=      5-min Rain = 0
KSM2 190919Z 04001KT 04/M01 A2998 RMK A01 T00421010  RH  069%=      5-min Rain = 0
KSM2 190920Z 04001KT 04/M01 A2998 RMK A01 T00421011  RH  068%=      5-min Rain = 0
KSM2 190921Z 04001KT 04/M01 A2998 RMK A01 T00421011  RH  068%=      5-min Rain = 0
KSM2 190922Z 07001KT 04/M01 A2998 RMK A01 T00421011  RH  068%=      5-min Rain = 0
KSM2 190923Z 07001KT 04/M01 A2998 RMK A01 T00421011  RH  068%=      5-min Rain = 0
KSM2 190924Z 06001KT 04/M01 A2998 RMK A01 T00421011  RH  068%=      5-min Rain = 0
KSM2 190925Z 07001KT 04/M01 A2998 RMK A01 T00421011  RH  069%=      5-min Rain = 0
KSM2 190926Z 07001KT 04/M01 A2998 RMK A01 T00421011  RH  069%=      5-min Rain = 0
KSM2 190927Z 08002KT 04/M01 A2998 RMK A01 T00431011  RH  068%=      5-min Rain = 0
KSM2 190928Z 08002KT 04/M01 A2998 RMK A01 T00431010  RH  068%=      5-min Rain = 0
KSM2 190929Z 08002KT 04/M01 A2998 RMK A01 T00441011  RH  067%=      5-min Rain = 0
KSM2 190930Z 08002KT 04/M01 A2998 RMK A01 T00441013  RH  067%=      5-min Rain = 0
KSM2 190931Z 07002KT 04/M01 A2998 RMK A01 T00421013  RH  067%=      5-min Rain = 0
KSM2 190932Z 06001KT 04/M01 A2998 RMK A01 T00421013  RH  068%=      5-min Rain = 0
KSM2 190933Z 28002KT 04/M01 A2999 RMK A01 T00411013  RH  068%=      5-min Rain = 0
KSM2 190934Z 26012KT 04/M01 A2999 RMK A01 T00401011  RH  069%=      5-min Rain = 0
KSM2 190935Z 26010KT 04/M01 A2999 RMK A01 T00401010  RH  070%=      5-min Rain = 0
KSM2 190936Z 25008KT 04/M01 A2999 RMK A01 T00401010  RH  070%=      5-min Rain = 0
KSM2 190937Z 24007KT 04/M01 A2999 RMK A01 T00411009  RH  070%=      5-min Rain = 0
KSM2 190938Z 22006KT 05/M01 A2999 RMK A01 T00451006  RH  069%=      5-min Rain = 0
KSM2 190939Z 25008KT 05/00 A2999 RMK A01 T005300-0  RH  069%=      5-min Rain = 0
KSM2 190940Z 25009KT 06/00 A2999 RMK A01 T00630004  RH  066%=      5-min Rain = 0
KSM2 190941Z 24008KT 07/00 A2999 RMK A01 T00710004  RH  063%=      5-min Rain = 0
KSM2 190942Z 23008KT 07/00 A2999 RMK A01 T00730003  RH  061%=      5-min Rain = 0
KSM2 190943Z 23007KT 07/00 A2999 RMK A01 T00740002  RH  060%=      5-min Rain = 0
KSM2 190944Z 23007KT 07/00 A2999 RMK A01 T00730001  RH  060%=      5-min Rain = 0
KSM2 190945Z 24007KT 07/00 A2999 RMK A01 T00720000  RH  060%=      5-min Rain = 0
KSM2 190946Z 24006KT 07/M00 A2999 RMK A01 T00701001  RH  061%=      5-min Rain = 0
KSM2 190947Z 24006KT 07/M00 A2999 RMK A01 T00681002  RH  061%=      5-min Rain = 0
KSM2 190948Z 24005KT 07/M00 A2999 RMK A01 T00671001  RH  062%=      5-min Rain = 0
KSM2 190949Z 24006KT 07/00 A2999 RMK A01 T006700-0  RH  062%=      5-min Rain = 0
KSM2 190950Z 24007KT 07/00 A2999 RMK A01 T006700-0  RH  062%=      5-min Rain = 0
KSM2 190951Z 25007KT 07/00 A2999 RMK A01 T006700-0  RH  062%=      5-min Rain = 0
KSM2 190952Z 25006KT 07/00 A2999 RMK A01 T006700-0  RH  062%=      5-min Rain = 0
KSM2 190953Z 25006KT 07/00 A2999 RMK A01 T006700-0  RH  062%=      5-min Rain = 0
KSM2 190954Z 25006KT 07/M00 A2999 RMK A01 T00661001  RH  062%=      5-min Rain = 0
KSM2 190955Z 25006KT 07/M00 A2999 RMK A01 T00651001  RH  063%=      5-min Rain = 0
KSM2 190956Z 25005KT 07/M00 A2999 RMK A01 T00651001  RH  063%=      5-min Rain = 0
KSM2 190957Z 25005KT 07/M00 A2999 RMK A01 T00651001  RH  063%=      5-min Rain = 0
KSM2 190958Z 26005KT 07/M00 A2999 RMK A01 T00651001  RH  063%=      5-min Rain = 0
KSM2 190959Z 26005KT 06/M00 A2999 RMK A01 T00641001  RH  063%=      5-min Rain = 0
KSM2 191000Z 26005KT 06/M00 A2999 RMK A01 T00631001  RH  063%=      5-min Rain = 0
KSM2 191001Z 25005KT 06/M00 A2999 RMK A01 T00631002  RH  063%=      5-min Rain = 0
KSM2 191002Z 25004KT 06/M00 A2999 RMK A01 T00611002  RH  064%=      5-min Rain = 0
KSM2 191003Z 26004KT 06/M00 A2999 RMK A01 T00601002  RH  064%=      5-min Rain = 0
KSM2 191004Z 26005KT 06/M00 A2999 RMK A01 T00601002  RH  064%=      5-min Rain = 0
KSM2 191005Z 26006KT 06/M00 A2999 RMK A01 T00601002  RH  064%=      5-min Rain = 0
KSM2 191006Z 26005KT 06/M00 A2999 RMK A01 T00601003  RH  064%=      5-min Rain = 0
KSM2 191007Z 25006KT 06/M00 A2999 RMK A01 T00601003  RH  064%=      5-min Rain = 0
KSM2 191008Z 26006KT 06/M00 A2999 RMK A01 T00601003  RH  064%=      5-min Rain = 0
KSM2 191009Z 26005KT 06/M00 A2999 RMK A01 T00611003  RH  063%=      5-min Rain = 0
KSM2 191010Z 26004KT 06/M00 A2999 RMK A01 T00611004  RH  063%=      5-min Rain = 0
KSM2 191016Z 28003KT 06/M01 A2999 RMK A01 T00581005  RH  064%=      5-min Rain = 0
KSM2 191017Z 27003KT 06/M01 A2999 RMK A01 T00571006  RH  064%=      5-min Rain = 0
KSM2 191018Z 27003KT 06/M01 A2999 RMK A01 T00551007  RH  064%=      5-min Rain = 0
KSM2 191019Z 28003KT 05/M01 A2999 RMK A01 T00541007  RH  065%=      5-min Rain = 0
KSM2 191020Z 28003KT 05/M01 A2999 RMK A01 T00521008  RH  065%=      5-min Rain = 0
KSM2 191021Z 27004KT 05/M01 A2999 RMK A01 T00521007  RH  066%=      5-min Rain = 0
KSM2 191022Z 27004KT 05/M01 A2999 RMK A01 T00511008  RH  066%=      5-min Rain = 0
KSM2 191023Z 27004KT 05/M01 A2999 RMK A01 T00501007  RH  066%=      5-min Rain = 0
KSM2 191024Z 28004KT 05/M01 A2999 RMK A01 T00501007  RH  067%=      5-min Rain = 0
KSM2 191025Z 28005KT 05/M01 A2999 RMK A01 T00501006  RH  067%=      5-min Rain = 0
KSM2 191026Z 28004KT 05/M01 A2999 RMK A01 T00521005  RH  066%=      5-min Rain = 0
KSM2 191027Z 29004KT 05/M01 A2999 RMK A01 T00541005  RH  066%=      5-min Rain = 0
KSM2 191028Z 30004KT 05/M01 A2999 RMK A01 T00541006  RH  065%=      5-min Rain = 0
KSM2 191029Z 30003KT 05/M01 A2999 RMK A01 T00541007  RH  065%=      5-min Rain = 0
KSM2 191030Z 31002KT 05/M01 A2999 RMK A01 T00531007  RH  065%=      5-min Rain = 0
KSM2 191031Z 32002KT 05/M01 A2999 RMK A01 T00511008  RH  065%=      5-min Rain = 0
KSM2 191032Z 32002KT 05/M01 A2999 RMK A01 T00491009  RH  066%=      5-min Rain = 0
KSM2 191033Z 33002KT 05/M01 A2999 RMK A01 T00481011  RH  066%=      5-min Rain = 0
KSM2 191034Z 33002KT 05/M01 A2999 RMK A01 T00461009  RH  067%=      5-min Rain = 0
KSM2 191035Z 33002KT 05/M01 A2999 RMK A01 T00461007  RH  068%=      5-min Rain = 0
KSM2 191036Z 32001KT 05/M01 A2999 RMK A01 T00461007  RH  068%=      5-min Rain = 0
KSM2 191037Z 32002KT 05/M01 A2999 RMK A01 T00461007  RH  069%=      5-min Rain = 0
KSM2 191038Z 32002KT 05/M01 A2999 RMK A01 T00451006  RH  069%=      5-min Rain = 0
KSM2 191039Z 32002KT 05/M01 A2999 RMK A01 T00451006  RH  069%=      5-min Rain = 0
KSM2 191040Z 32003KT 05/M01 A2998 RMK A01 T00451006  RH  070%=      5-min Rain = 0
KSM2 191041Z 32003KT 05/M01 A2998 RMK A01 T00451005  RH  070%=      5-min Rain = 0
KSM2 191042Z 32003KT 05/M01 A2998 RMK A01 T00461005  RH  070%=      5-min Rain = 0
KSM2 191043Z 32003KT 05/M01 A2998 RMK A01 T00451006  RH  070%=      5-min Rain = 0
KSM2 191044Z 32003KT 04/M01 A2998 RMK A01 T00441006  RH  070%=      5-min Rain = 0
KSM2 191045Z 32003KT 05/M01 A2998 RMK A01 T00451006  RH  070%=      5-min Rain = 0
KSM2 191046Z 31003KT 04/M01 A2998 RMK A01 T00441006  RH  070%=      5-min Rain = 0
KSM2 191047Z 31003KT 04/M01 A2998 RMK A01 T00431008  RH  069%=      5-min Rain = 0
KSM2 191048Z 31003KT 04/M01 A2998 RMK A01 T00421007  RH  070%=      5-min Rain = 0
KSM2 191049Z 31003KT 04/M01 A2998 RMK A01 T00421007  RH  071%=      5-min Rain = 0
KSM2 191050Z 32003KT 04/M01 A2998 RMK A01 T00421007  RH  070%=      5-min Rain = 0
KSM2 191051Z 32002KT 04/M01 A2998 RMK A01 T00411007  RH  071%=      5-min Rain = 0
KSM2 191052Z 32002KT 04/M01 A2998 RMK A01 T00411008  RH  071%=      5-min Rain = 0
KSM2 191053Z 31002KT 04/M01 A2998 RMK A01 T00401007  RH  071%=      5-min Rain = 0
KSM2 191054Z 32002KT 04/M01 A2998 RMK A01 T00421006  RH  071%=      5-min Rain = 0
KSM2 191055Z 32001KT 04/M01 A2998 RMK A01 T00441006  RH  070%=      5-min Rain = 0
KSM2 191056Z 32001KT 04/M01 A2998 RMK A01 T00441007  RH  070%=      5-min Rain = 0
KSM2 191057Z 31000KT 04/M01 A2998 RMK A01 T00441006  RH  070%=      5-min Rain = 0
KSM2 191058Z 29001KT 04/M01 A2998 RMK A01 T00441006  RH  070%=      5-min Rain = 0
KSM2 191059Z 29002KT 04/M01 A2998 RMK A01 T00441006  RH  070%=      5-min Rain = 0
KSM2 191100Z 28002KT 04/M01 A2998 RMK A01 T00441006  RH  070%=      5-min Rain = 0
KSM2 191101Z 26002KT 04/M01 A2998 RMK A01 T00441006  RH  070%=      5-min Rain = 0
KSM2 191102Z 28000KT 05/M01 A2998 RMK A01 T00451006  RH  070%=      5-min Rain = 0
KSM2 191103Z 00000KT 05/M01 A2998 RMK A01 T00461005  RH  069%=      5-min Rain = 0
KSM2 191104Z 27001KT 05/M01 A2998 RMK A01 T00471005  RH  069%=      5-min Rain = 0
KSM2 191105Z 30003KT 05/M01 A2998 RMK A01 T00481005  RH  068%=      5-min Rain = 0
KSM2 191106Z 30003KT 05/M01 A2998 RMK A01 T00461008  RH  068%=      5-min Rain = 0
KSM2 191107Z 29002KT 04/M01 A2998 RMK A01 T00421012  RH  068%=      5-min Rain = 0
KSM2 191108Z 29002KT 04/M01 A2998 RMK A01 T00391012  RH  069%=      5-min Rain = 0
KSM2 191109Z 30001KT 04/M01 A2998 RMK A01 T00391009  RH  071%=      5-min Rain = 0
KSM2 191110Z 30001KT 04/M01 A2998 RMK A01 T00411008  RH  071%=      5-min Rain = 0
KSM2 191111Z 30000KT 04/M01 A2998 RMK A01 T00421008  RH  070%=      5-min Rain = 0
KSM2 191112Z 30000KT 04/M01 A2998 RMK A01 T00411008  RH  070%=      5-min Rain = 0
KSM2 191113Z 29001KT 04/M01 A2998 RMK A01 T00401008  RH  071%=      5-min Rain = 0
KSM2 191114Z 28001KT 04/M01 A2998 RMK A01 T00401008  RH  071%=      5-min Rain = 0
KSM2 191115Z 29002KT 04/M01 A2998 RMK A01 T00401008  RH  071%=      5-min Rain = 0
KSM2 191116Z 29002KT 04/M01 A2998 RMK A01 T00411006  RH  071%=      5-min Rain = 0
KSM2 191117Z 29001KT 04/M01 A2998 RMK A01 T00411006  RH  071%=      5-min Rain = 0
KSM2 191118Z 29001KT 04/M01 A2998 RMK A01 T00411006  RH  071%=      5-min Rain = 0
KSM2 191119Z 29001KT 04/M01 A2998 RMK A01 T00411005  RH  072%=      5-min Rain = 0
KSM2 191120Z 29000KT 04/M01 A2998 RMK A01 T00411006  RH  071%=      5-min Rain = 0
KSM2 191121Z 00000KT 04/M01 A2998 RMK A01 T00421005  RH  071%=      5-min Rain = 0
KSM2 191122Z 00000KT 04/M01 A2997 RMK A01 T00431006  RH  071%=      5-min Rain = 0
KSM2 191123Z 00000KT 04/M01 A2997 RMK A01 T00441006  RH  070%=      5-min Rain = 0
KSM2 191124Z 00000KT 05/M01 A2997 RMK A01 T00451007  RH  069%=      5-min Rain = 0
KSM2 191125Z 29000KT 05/M01 A2997 RMK A01 T00451007  RH  069%=      5-min Rain = 0
KSM2 191126Z 29001KT 05/M01 A2997 RMK A01 T00451007  RH  069%=      5-min Rain = 0
KSM2 191127Z 29001KT 05/M01 A2998 RMK A01 T00451007  RH  069%=      5-min Rain = 0
KSM2 191128Z 29001KT 05/M01 A2997 RMK A01 T00461007  RH  069%=      5-min Rain = 0
KSM2 191129Z 31001KT 05/M01 A2997 RMK A01 T00461007  RH  068%=      5-min Rain = 0
KSM2 191130Z 31001KT 05/M01 A2997 RMK A01 T00451008  RH  068%=      5-min Rain = 0
KSM2 191131Z 31001KT 05/M01 A2997 RMK A01 T00451008  RH  069%=      5-min Rain = 0
KSM2 191132Z 30002KT 04/M01 A2997 RMK A01 T00441008  RH  069%=      5-min Rain = 0
KSM2 191133Z 30002KT 04/M01 A2997 RMK A01 T00441008  RH  069%=      5-min Rain = 0
KSM2 191134Z 30002KT 05/M01 A2997 RMK A01 T00451007  RH  069%=      5-min Rain = 0
KSM2 191135Z 31002KT 05/M01 A2997 RMK A01 T00451007  RH  069%=      5-min Rain = 0
KSM2 191136Z 32002KT 05/M01 A2997 RMK A01 T00451008  RH  069%=      5-min Rain = 0
KSM2 191137Z 33002KT 05/M01 A2997 RMK A01 T00451008  RH  069%=      5-min Rain = 0
KSM2 191138Z 33002KT 05/M01 A2997 RMK A01 T00451008  RH  069%=      5-min Rain = 0
KSM2 191139Z 33002KT 04/M01 A2997 RMK A01 T00441008  RH  069%=      5-min Rain = 0
KSM2 191140Z 33002KT 04/M01 A2997 RMK A01 T00441008  RH  069%=      5-min Rain = 0
KSM2 191141Z 33002KT 04/M01 A2997 RMK A01 T00431009  RH  069%=      5-min Rain = 0
KSM2 191142Z 33002KT 04/M01 A2997 RMK A01 T00421010  RH  069%=      5-min Rain = 0
KSM2 191143Z 34002KT 04/M01 A2997 RMK A01 T00401010  RH  070%=      5-min Rain = 0
KSM2 191144Z 34002KT 04/M02 A2997 RMK A01 T00371015  RH  069%=      5-min Rain = 0
KSM2 191145Z 35002KT 03/M02 A2997 RMK A01 T00321017  RH  070%=      5-min Rain = 0
KSM2 191146Z 35003KT 03/M02 A2997 RMK A01 T00291017  RH  072%=      5-min Rain = 0
KSM2 191147Z 35003KT 03/M02 A2997 RMK A01 T00271015  RH  074%=      5-min Rain = 0
KSM2 191148Z 35002KT 03/M01 A2997 RMK A01 T00271014  RH  074%=      5-min Rain = 0
KSM2 191149Z 35003KT 03/M01 A2997 RMK A01 T00271014  RH  074%=      5-min Rain = 0
KSM2 191150Z 35003KT 03/M01 A2997 RMK A01 T00271014  RH  075%=      5-min Rain = 0
KSM2 191151Z 35003KT 03/M01 A2997 RMK A01 T00261013  RH  075%=      5-min Rain = 0
KSM2 191152Z 35003KT 03/M01 A2997 RMK A01 T00261013  RH  075%=      5-min Rain = 0
KSM2 191153Z 35003KT 03/M01 A2997 RMK A01 T00261013  RH  075%=      5-min Rain = 0
KSM2 191154Z 00003KT 03/M01 A2997 RMK A01 T00261013  RH  076%=      5-min Rain = 0
KSM2 191155Z 00003KT 03/M01 A2997 RMK A01 T00271011  RH  076%=      5-min Rain = 0
KSM2 191156Z 01004KT 03/M01 A2997 RMK A01 T00281011  RH  075%=      5-min Rain = 0
KSM2 191157Z 02003KT 03/M01 A2996 RMK A01 T00311008  RH  075%=      5-min Rain = 0
KSM2 191158Z 02003KT 03/M01 A2996 RMK A01 T00341010  RH  073%=      5-min Rain = 0
KSM2 191159Z 01004KT 04/M01 A2996 RMK A01 T00351009  RH  073%=      5-min Rain = 0
KSM2 191200Z 01003KT 04/M01 A2997 RMK A01 T00361012  RH  071%=      5-min Rain = 0
KSM2 191201Z 00003KT 04/M01 A2997 RMK A01 T00351014  RH  071%=      5-min Rain = 0
KSM2 191202Z 00003KT 03/M01 A2997 RMK A01 T00331013  RH  072%=      5-min Rain = 0
KSM2 191203Z 01003KT 03/M01 A2997 RMK A01 T00321012  RH  073%=      5-min Rain = 0
KSM2 191204Z 01004KT 03/M01 A2997 RMK A01 T00321012  RH  073%=      5-min Rain = 0
KSM2 191205Z 01004KT 03/M01 A2997 RMK A01 T00321013  RH  073%=      5-min Rain = 0
KSM2 191206Z 01004KT 03/M01 A2996 RMK A01 T00311013  RH  073%=      5-min Rain = 0
KSM2 191207Z 01004KT 03/M01 A2996 RMK A01 T00301013  RH  073%=      5-min Rain = 0
KSM2 191208Z 00003KT 03/M01 A2997 RMK A01 T00301013  RH  073%=      5-min Rain = 0
KSM2 191209Z 00003KT 03/M01 A2997 RMK A01 T00301014  RH  073%=      5-min Rain = 0
KSM2 191210Z 00003KT 03/M01 A2997 RMK A01 T00291014  RH  074%=      5-min Rain = 0
KSM2 191211Z 01003KT 03/M02 A2997 RMK A01 T00281015  RH  073%=      5-min Rain = 0
KSM2 191212Z 01003KT 03/M02 A2997 RMK A01 T00271015  RH  073%=      5-min Rain = 0
KSM2 191213Z 01003KT 03/M02 A2997 RMK A01 T00261016  RH  074%=      5-min Rain = 0
KSM2 191214Z 01004KT 03/M02 A2996 RMK A01 T00251017  RH  074%=      5-min Rain = 0
KSM2 191215Z 01004KT 03/M02 A2996 RMK A01 T00251016  RH  075%=      5-min Rain = 0
KSM2 191216Z 01004KT 02/M02 A2996 RMK A01 T00241016  RH  075%=      5-min Rain = 0
KSM2 191217Z 01004KT 02/M02 A2996 RMK A01 T00241017  RH  075%=      5-min Rain = 0
KSM2 191218Z 01004KT 02/M02 A2996 RMK A01 T00231016  RH  075%=      5-min Rain = 0
KSM2 191219Z 01004KT 02/M02 A2996 RMK A01 T00231016  RH  075%=      5-min Rain = 0
KSM2 191220Z 01004KT 02/M02 A2996 RMK A01 T00231016  RH  076%=      5-min Rain = 0
KSM2 191221Z 01004KT 02/M02 A2996 RMK A01 T00231015  RH  076%=      5-min Rain = 0
KSM2 191222Z 01004KT 02/M01 A2996 RMK A01 T00231014  RH  076%=      5-min Rain = 0
KSM2 191223Z 01004KT 02/M02 A2996 RMK A01 T00231015  RH  076%=      5-min Rain = 0
KSM2 191224Z 00004KT 02/M02 A2996 RMK A01 T00231015  RH  076%=      5-min Rain = 0
KSM2 191225Z 01004KT 02/M01 A2996 RMK A01 T00231014  RH  077%=      5-min Rain = 0
KSM2 191226Z 01004KT 02/M02 A2996 RMK A01 T00221015  RH  076%=      5-min Rain = 0
KSM2 191227Z 00004KT 02/M02 A2996 RMK A01 T00221015  RH  076%=      5-min Rain = 0
KSM2 191228Z 36004KT 02/M02 A2996 RMK A01 T00231015  RH  076%=      5-min Rain = 0
KSM2 191229Z 35004KT 02/M02 A2996 RMK A01 T00221015  RH  076%=      5-min Rain = 0
KSM2 191230Z 35003KT 02/M02 A2996 RMK A01 T00221016  RH  076%=      5-min Rain = 0
KSM2 191231Z 34004KT 02/M02 A2997 RMK A01 T00211018  RH  075%=      5-min Rain = 0
KSM2 191232Z 34004KT 02/M02 A2997 RMK A01 T00201020  RH  075%=      5-min Rain = 0
KSM2 191233Z 33004KT 02/M02 A2997 RMK A01 T00181021  RH  075%=      5-min Rain = 0
KSM2 191234Z 32004KT 02/M02 A2997 RMK A01 T00171022  RH  075%=      5-min Rain = 0
KSM2 191235Z 32004KT 02/M02 A2997 RMK A01 T00151023  RH  076%=      5-min Rain = 0
KSM2 191236Z 31005KT 01/M02 A2997 RMK A01 T00141022  RH  077%=      5-min Rain = 0
KSM2 191237Z 29005KT 01/M02 A2997 RMK A01 T00141021  RH  078%=      5-min Rain = 0
KSM2 191238Z 29006KT 01/M02 A2997 RMK A01 T00141020  RH  078%=      5-min Rain = 0
KSM2 191239Z 29006KT 01/M02 A2997 RMK A01 T00141018  RH  080%=      5-min Rain = 0
KSM2 191240Z 29006KT 02/M02 A2997 RMK A01 T00161015  RH  080%=      5-min Rain = 0
KSM2 191241Z 28005KT 02/M01 A2997 RMK A01 T00171013  RH  080%=      5-min Rain = 0
KSM2 191242Z 29005KT 02/M01 A2997 RMK A01 T00201011  RH  080%=      5-min Rain = 0
KSM2 191243Z 29005KT 02/M01 A2997 RMK A01 T00221011  RH  079%=      5-min Rain = 0
KSM2 191244Z 30005KT 02/M01 A2997 RMK A01 T00221012  RH  079%=      5-min Rain = 0
KSM2 191245Z 30004KT 02/M01 A2997 RMK A01 T00231011  RH  078%=      5-min Rain = 0
KSM2 191246Z 30004KT 02/M01 A2997 RMK A01 T00241011  RH  078%=      5-min Rain = 0
KSM2 191247Z 29004KT 03/M01 A2997 RMK A01 T00251011  RH  078%=      5-min Rain = 0
KSM2 191248Z 30005KT 03/M01 A2997 RMK A01 T00251011  RH  077%=      5-min Rain = 0
KSM2 191249Z 30005KT 03/M01 A2997 RMK A01 T00261011  RH  076%=      5-min Rain = 0
KSM2 191250Z 30005KT 03/M01 A2997 RMK A01 T00261012  RH  076%=      5-min Rain = 0
KSM2 191251Z 30005KT 03/M01 A2997 RMK A01 T00261013  RH  075%=      5-min Rain = 0
KSM2 191252Z 30005KT 03/M01 A2997 RMK A01 T00261014  RH  075%=      5-min Rain = 0
KSM2 191253Z 30006KT 03/M01 A2997 RMK A01 T00261014  RH  075%=      5-min Rain = 0
KSM2 191254Z 30006KT 03/M01 A2997 RMK A01 T00261014  RH  075%=      5-min Rain = 0
KSM2 191255Z 30006KT 03/M01 A2997 RMK A01 T00261014  RH  075%=      5-min Rain = 0
KSM2 191256Z 30006KT 03/M01 A2997 RMK A01 T00261014  RH  075%=      5-min Rain = 0
KSM2 191257Z 30006KT 03/M01 A2997 RMK A01 T00261014  RH  075%=      5-min Rain = 0
KSM2 191258Z 30006KT 03/M01 A2997 RMK A01 T00251014  RH  075%=      5-min Rain = 0
KSM2 191259Z 30006KT 03/M01 A2997 RMK A01 T00251014  RH  075%=      5-min Rain = 0
KSM2 191300Z 30005KT 03/M01 A2997 RMK A01 T00251014  RH  076%=      5-min Rain = 0
KSM2 191301Z 30005KT 03/M01 A2997 RMK A01 T00251013  RH  076%=      5-min Rain = 0
KSM2 191302Z 30005KT 02/M01 A2997 RMK A01 T00241014  RH  076%=      5-min Rain = 0
KSM2 191303Z 30005KT 02/M01 A2997 RMK A01 T00241013  RH  076%=      5-min Rain = 0
KSM2 191304Z 29005KT 02/M01 A2997 RMK A01 T00241013  RH  076%=      5-min Rain = 0
KSM2 191305Z 29004KT 02/M01 A2997 RMK A01 T00241013  RH  076%=      5-min Rain = 0
KSM2 191306Z 30004KT 03/M01 A2997 RMK A01 T00251013  RH  076%=      5-min Rain = 0
KSM2 191307Z 30004KT 03/M01 A2997 RMK A01 T00251012  RH  076%=      5-min Rain = 0
KSM2 191308Z 30004KT 03/M01 A2997 RMK A01 T00261012  RH  076%=      5-min Rain = 0
KSM2 191309Z 30004KT 03/M01 A2997 RMK A01 T00271012  RH  076%=      5-min Rain = 0
KSM2 191310Z 30004KT 03/M01 A2997 RMK A01 T00281012  RH  075%=      5-min Rain = 0
KSM2 191311Z 30004KT 03/M01 A2997 RMK A01 T00291012  RH  075%=      5-min Rain = 0
KSM2 191312Z 30004KT 03/M01 A2997 RMK A01 T00291012  RH  074%=      5-min Rain = 0
KSM2 191313Z 30004KT 03/M01 A2997 RMK A01 T00291012  RH  074%=      5-min Rain = 0
KSM2 191314Z 30004KT 03/M01 A2997 RMK A01 T00291012  RH  074%=      5-min Rain = 0
KSM2 191315Z 30004KT 03/M01 A2997 RMK A01 T00291013  RH  074%=      5-min Rain = 0
KSM2 191316Z 30004KT 03/M01 A2997 RMK A01 T00291013  RH  074%=      5-min Rain = 0
KSM2 191317Z 30004KT 03/M01 A2997 RMK A01 T00291012  RH  074%=      5-min Rain = 0
KSM2 191318Z 30004KT 03/M01 A2997 RMK A01 T00301012  RH  074%=      5-min Rain = 0
KSM2 191319Z 30004KT 03/M01 A2997 RMK A01 T00301012  RH  074%=      5-min Rain = 0
KSM2 191320Z 30004KT 03/M01 A2997 RMK A01 T00301013  RH  074%=      5-min Rain = 0
KSM2 191321Z 30004KT 03/M01 A2997 RMK A01 T00301013  RH  074%=      5-min Rain = 0
KSM2 191322Z 30004KT 03/M01 A2997 RMK A01 T00301013  RH  074%=      5-min Rain = 0
KSM2 191323Z 29004KT 03/M01 A2997 RMK A01 T00291013  RH  074%=      5-min Rain = 0
KSM2 191324Z 29004KT 03/M01 A2997 RMK A01 T00291013  RH  073%=      5-min Rain = 0
KSM2 191325Z 29004KT 03/M01 A2997 RMK A01 T00291013  RH  074%=      5-min Rain = 0
KSM2 191326Z 30004KT 03/M01 A2997 RMK A01 T00301013  RH  074%=      5-min Rain = 0
KSM2 191327Z 30004KT 03/M01 A2998 RMK A01 T00291013  RH  073%=      5-min Rain = 0
KSM2 191328Z 30004KT 03/M01 A2998 RMK A01 T00291014  RH  073%=      5-min Rain = 0
KSM2 191329Z 30003KT 03/M01 A2998 RMK A01 T00281014  RH  073%=      5-min Rain = 0
KSM2 191330Z 30003KT 03/M02 A2997 RMK A01 T00281015  RH  073%=      5-min Rain = 0
KSM2 191331Z 31003KT 03/M02 A2997 RMK A01 T00271015  RH  074%=      5-min Rain = 0
KSM2 191332Z 31003KT 03/M02 A2998 RMK A01 T00271015  RH  074%=      5-min Rain = 0
KSM2 191333Z 31003KT 03/M01 A2998 RMK A01 T00271014  RH  074%=      5-min Rain = 0
KSM2 191334Z 31003KT 03/M01 A2998 RMK A01 T00271014  RH  075%=      5-min Rain = 0
KSM2 191335Z 32003KT 03/M01 A2998 RMK A01 T00271014  RH  075%=      5-min Rain = 0
KSM2 191336Z 32003KT 03/M01 A2998 RMK A01 T00271013  RH  075%=      5-min Rain = 0
KSM2 191337Z 32003KT 03/M01 A2997 RMK A01 T00271013  RH  075%=      5-min Rain = 0
KSM2 191338Z 33003KT 03/M01 A2997 RMK A01 T00281013  RH  075%=      5-min Rain = 0
KSM2 191339Z 33003KT 03/M01 A2997 RMK A01 T00281012  RH  075%=      5-min Rain = 0
KSM2 191340Z 34003KT 03/M01 A2997 RMK A01 T00291012  RH  074%=      5-min Rain = 0
KSM2 191341Z 34003KT 03/M01 A2997 RMK A01 T00291012  RH  074%=      5-min Rain = 0
KSM2 191342Z 34003KT 03/M01 A2997 RMK A01 T00301012  RH  074%=      5-min Rain = 0
KSM2 191343Z 34003KT 03/M01 A2997 RMK A01 T00311012  RH  073%=      5-min Rain = 0
KSM2 191344Z 34003KT 03/M01 A2997 RMK A01 T00321012  RH  073%=      5-min Rain = 0
KSM2 191345Z 34003KT 03/M01 A2997 RMK A01 T00331012  RH  073%=      5-min Rain = 0
KSM2 191346Z 33003KT 03/M01 A2997 RMK A01 T00331012  RH  072%=      5-min Rain = 0
KSM2 191347Z 32003KT 03/M01 A2997 RMK A01 T00331012  RH  072%=      5-min Rain = 0
KSM2 191348Z 32002KT 03/M01 A2997 RMK A01 T00341012  RH  072%=      5-min Rain = 0
KSM2 191349Z 32002KT 03/M01 A2997 RMK A01 T00341013  RH  072%=      5-min Rain = 0
KSM2 191350Z 32002KT 03/M01 A2997 RMK A01 T00341012  RH  071%=      5-min Rain = 0
KSM2 191351Z 32002KT 04/M01 A2997 RMK A01 T00351013  RH  071%=      5-min Rain = 0
KSM2 191352Z 31002KT 04/M01 A2997 RMK A01 T00351013  RH  071%=      5-min Rain = 0
KSM2 191353Z 31002KT 04/M01 A2997 RMK A01 T00351013  RH  071%=      5-min Rain = 0
KSM2 191354Z 31002KT 04/M01 A2997 RMK A01 T00351012  RH  071%=      5-min Rain = 0
KSM2 191355Z 31002KT 04/M01 A2997 RMK A01 T00361012  RH  071%=      5-min Rain = 0
KSM2 191356Z 32002KT 04/M01 A2997 RMK A01 T00381012  RH  070%=      5-min Rain = 0
KSM2 191357Z 32003KT 04/M01 A2997 RMK A01 T00391011  RH  070%=      5-min Rain = 0
KSM2 191358Z 33003KT 04/M01 A2997 RMK A01 T00411010  RH  069%=      5-min Rain = 0
KSM2 191359Z 33003KT 04/M01 A2997 RMK A01 T00441009  RH  068%=      5-min Rain = 0
KSM2 191400Z 33003KT 05/M01 A2997 RMK A01 T00471009  RH  067%=      5-min Rain = 0
KSM2 191401Z 33003KT 05/M01 A2997 RMK A01 T00481009  RH  066%=      5-min Rain = 0
KSM2 191402Z 33003KT 05/M01 A2997 RMK A01 T00491009  RH  066%=      5-min Rain = 0
KSM2 191403Z 33003KT 05/M01 A2997 RMK A01 T00491008  RH  066%=      5-min Rain = 0
KSM2 191404Z 33003KT 05/M01 A2997 RMK A01 T00491005  RH  068%=      5-min Rain = 0
KSM2 191405Z 33003KT 05/M00 A2997 RMK A01 T00491003  RH  069%=      5-min Rain = 0
KSM2 191406Z 33003KT 05/M00 A2997 RMK A01 T00491002  RH  069%=      5-min Rain = 0
KSM2 191407Z 34003KT 05/M00 A2997 RMK A01 T00481004  RH  069%=      5-min Rain = 0
KSM2 191408Z 34003KT 05/M00 A2997 RMK A01 T00481004  RH  069%=      5-min Rain = 0
KSM2 191409Z 35003KT 05/M00 A2997 RMK A01 T00471003  RH  070%=      5-min Rain = 0
KSM2 191410Z 00003KT 05/M00 A2997 RMK A01 T00461001  RH  071%=      5-min Rain = 0
KSM2 191411Z 00003KT 05/00 A2997 RMK A01 T00460001  RH  073%=      5-min Rain = 0
KSM2 191412Z 01003KT 05/00 A2997 RMK A01 T00460001  RH  073%=      5-min Rain = 0
KSM2 191413Z 01003KT 05/00 A2997 RMK A01 T00450001  RH  073%=      5-min Rain = 0
KSM2 191414Z 01002KT 05/00 A2997 RMK A01 T00450003  RH  074%=      5-min Rain = 0
KSM2 191415Z 00002KT 05/00 A2997 RMK A01 T00460003  RH  074%=      5-min Rain = 0
KSM2 191416Z 36001KT 05/00 A2997 RMK A01 T00470002  RH  072%=      5-min Rain = 0
KSM2 191417Z 00001KT 05/M00 A2997 RMK A01 T00481003  RH  070%=      5-min Rain = 0
KSM2 191418Z 36000KT 05/M00 A2997 RMK A01 T00491002  RH  069%=      5-min Rain = 0
KSM2 191419Z 33000KT 05/M00 A2997 RMK A01 T00491001  RH  070%=      5-min Rain = 0
KSM2 191420Z 33001KT 05/M00 A2997 RMK A01 T00501003  RH  069%=      5-min Rain = 0
KSM2 191421Z 33001KT 05/M00 A2997 RMK A01 T00511004  RH  068%=      5-min Rain = 0
KSM2 191422Z 33002KT 05/M01 A2997 RMK A01 T00511006  RH  067%=      5-min Rain = 0
KSM2 191423Z 33002KT 05/M01 A2997 RMK A01 T00511005  RH  067%=      5-min Rain = 0
KSM2 191424Z 34001KT 05/M01 A2997 RMK A01 T00511006  RH  067%=      5-min Rain = 0
KSM2 191425Z 34001KT 05/M01 A2997 RMK A01 T00511007  RH  066%=      5-min Rain = 0
KSM2 191426Z 34001KT 05/M01 A2997 RMK A01 T00511006  RH  067%=      5-min Rain = 0
KSM2 191427Z 34001KT 05/M00 A2997 RMK A01 T00521004  RH  067%=      5-min Rain = 0
KSM2 191428Z 33001KT 05/M00 A2997 RMK A01 T00531003  RH  067%=      5-min Rain = 0
KSM2 191429Z 33001KT 05/M01 A2997 RMK A01 T00531005  RH  066%=      5-min Rain = 0
KSM2 191430Z 32001KT 05/M01 A2997 RMK A01 T00541005  RH  066%=      5-min Rain = 0
KSM2 191431Z 32002KT 05/M01 A2997 RMK A01 T00541005  RH  066%=      5-min Rain = 0
KSM2 191432Z 32001KT 06/M00 A2997 RMK A01 T00551004  RH  066%=      5-min Rain = 0
KSM2 191433Z 33001KT 06/M00 A2997 RMK A01 T00571002  RH  066%=      5-min Rain = 0
KSM2 191434Z 33001KT 06/M00 A2997 RMK A01 T00581002  RH  065%=      5-min Rain = 0
KSM2 191435Z 34001KT 06/M00 A2997 RMK A01 T00591003  RH  065%=      5-min Rain = 0
KSM2 191436Z 34001KT 06/M00 A2997 RMK A01 T00601002  RH  064%=      5-min Rain = 0
KSM2 191437Z 34001KT 06/M00 A2997 RMK A01 T00611003  RH  064%=      5-min Rain = 0
KSM2 191438Z 00000KT 06/M00 A2997 RMK A01 T00621001  RH  064%=      5-min Rain = 0
KSM2 191439Z 35001KT 06/00 A2997 RMK A01 T00630000  RH  064%=      5-min Rain = 0
KSM2 191440Z 35001KT 06/00 A2997 RMK A01 T00640000  RH  063%=      5-min Rain = 0
KSM2 191441Z 35001KT 07/00 A2997 RMK A01 T00650000  RH  063%=      5-min Rain = 0
KSM2 191442Z 00001KT 07/00 A2997 RMK A01 T00660001  RH  063%=      5-min Rain = 0
KSM2 191443Z 00001KT 07/00 A2997 RMK A01 T00670001  RH  063%=      5-min Rain = 0
KSM2 191444Z 01001KT 07/00 A2997 RMK A01 T00680002  RH  063%=      5-min Rain = 0
KSM2 191445Z 02001KT 07/00 A2997 RMK A01 T00690004  RH  063%=      5-min Rain = 0
KSM2 191446Z 02001KT 07/01 A2997 RMK A01 T00700006  RH  063%=      5-min Rain = 0
KSM2 191447Z 02000KT 07/01 A2997 RMK A01 T00720008  RH  064%=      5-min Rain = 0
KSM2 191448Z 01000KT 07/01 A2997 RMK A01 T00740011  RH  065%=      5-min Rain = 0
KSM2 191449Z 01000KT 08/01 A2997 RMK A01 T00770013  RH  064%=      5-min Rain = 0
KSM2 191450Z 01001KT 08/01 A2997 RMK A01 T00780012  RH  063%=      5-min Rain = 0
KSM2 191451Z 36001KT 08/01 A2997 RMK A01 T00790013  RH  063%=      5-min Rain = 0
KSM2 191452Z 36001KT 08/01 A2997 RMK A01 T00800013  RH  063%=      5-min Rain = 0
KSM2 191453Z 01001KT 08/01 A2997 RMK A01 T00810014  RH  063%=      5-min Rain = 0
KSM2 191454Z 00001KT 08/02 A2997 RMK A01 T00820015  RH  063%=      5-min Rain = 0
KSM2 191455Z 01001KT 08/02 A2997 RMK A01 T00830017  RH  063%=      5-min Rain = 0
KSM2 191456Z 02000KT 09/02 A2997 RMK A01 T00850017  RH  062%=      5-min Rain = 0
KSM2 191457Z 31000KT 09/02 A2997 RMK A01 T00860018  RH  062%=      5-min Rain = 0
KSM2 191458Z 00000KT 09/02 A2997 RMK A01 T00880019  RH  062%=      5-min Rain = 0
KSM2 191459Z 00000KT 09/02 A2997 RMK A01 T00890019  RH  061%=      5-min Rain = 0
KSM2 191500Z 32000KT 09/02 A2997 RMK A01 T00900020  RH  061%=      5-min Rain = 0
KSM2 191501Z 30000KT 09/02 A2997 RMK A01 T00910021  RH  061%=      5-min Rain = 0
KSM2 191502Z 30000KT 09/02 A2997 RMK A01 T00930022  RH  061%=      5-min Rain = 0
KSM2 191503Z 30001KT 09/02 A2997 RMK A01 T00940022  RH  061%=      5-min Rain = 0
KSM2 191504Z 30000KT 10/02 A2997 RMK A01 T00950021  RH  060%=      5-min Rain = 0
KSM2 191505Z 00000KT 10/02 A2997 RMK A01 T00950021  RH  060%=      5-min Rain = 0
KSM2 191506Z 00000KT 10/02 A2997 RMK A01 T00960021  RH  059%=      5-min Rain = 0
KSM2 191507Z 00000KT 10/02 A2997 RMK A01 T00980023  RH  060%=      5-min Rain = 0
KSM2 191508Z 14001KT 10/02 A2997 RMK A01 T01000024  RH  059%=      5-min Rain = 0
KSM2 191509Z 14001KT 10/02 A2997 RMK A01 T01020023  RH  058%=      5-min Rain = 0
KSM2 191510Z 13001KT 10/02 A2997 RMK A01 T01040024  RH  058%=      5-min Rain = 0
KSM2 191511Z 12001KT 11/02 A2997 RMK A01 T01050023  RH  057%=      5-min Rain = 0
KSM2 191512Z 14002KT 11/02 A2997 RMK A01 T01080024  RH  056%=      5-min Rain = 0
KSM2 191513Z 14002KT 11/02 A2997 RMK A01 T01120023  RH  054%=      5-min Rain = 0
KSM2 191514Z 15002KT 11/02 A2997 RMK A01 T01140024  RH  054%=      5-min Rain = 0
KSM2 191515Z 16002KT 12/02 A2997 RMK A01 T01160020  RH  052%=      5-min Rain = 0
KSM2 191516Z 16002KT 12/02 A2997 RMK A01 T01170018  RH  050%=      5-min Rain = 0
KSM2 191517Z 18002KT 12/02 A2997 RMK A01 T01190018  RH  050%=      5-min Rain = 0
KSM2 191518Z 18002KT 12/02 A2997 RMK A01 T01200018  RH  049%=      5-min Rain = 0
KSM2 191519Z 16002KT 12/02 A2997 RMK A01 T01220024  RH  051%=      5-min Rain = 0
KSM2 191520Z 18002KT 12/02 A2997 RMK A01 T01230022  RH  050%=      5-min Rain = 0
KSM2 191521Z 18002KT 12/02 A2997 RMK A01 T01240022  RH  050%=      5-min Rain = 0
KSM2 191522Z 17001KT 13/02 A2998 RMK A01 T01260020  RH  048%=      5-min Rain = 0
KSM2 191523Z 16002KT 13/01 A2998 RMK A01 T01280014  RH  046%=      5-min Rain = 0
KSM2 191524Z 17002KT 13/01 A2998 RMK A01 T01310013  RH  045%=      5-min Rain = 0
KSM2 191525Z 20003KT 13/02 A2998 RMK A01 T01330015  RH  045%=      5-min Rain = 0
KSM2 191526Z 21004KT 13/01 A2998 RMK A01 T01330013  RH  044%=      5-min Rain = 0
KSM2 191527Z 22004KT 13/01 A2998 RMK A01 T01320011  RH  044%=      5-min Rain = 0
KSM2 191528Z 24004KT 13/01 A2998 RMK A01 T01310014  RH  045%=      5-min Rain = 0
KSM2 191529Z 24005KT 13/02 A2998 RMK A01 T01310015  RH  045%=      5-min Rain = 0
KSM2 191530Z 24004KT 13/01 A2998 RMK A01 T01300009  RH  044%=      5-min Rain = 0
KSM2 191531Z 25003KT 13/01 A2998 RMK A01 T01290012  RH  045%=      5-min Rain = 0
KSM2 191532Z 24003KT 13/01 A2998 RMK A01 T01300012  RH  044%=      5-min Rain = 0
KSM2 191533Z 24004KT 13/02 A2998 RMK A01 T01330015  RH  045%=      5-min Rain = 0
KSM2 191534Z 23004KT 14/01 A2998 RMK A01 T01350010  RH  043%=      5-min Rain = 0
KSM2 191535Z 22004KT 13/01 A2998 RMK A01 T01340010  RH  043%=      5-min Rain = 0
KSM2 191536Z 22004KT 13/01 A2998 RMK A01 T01330007  RH  042%=      5-min Rain = 0
KSM2 191537Z 23003KT 13/01 A2998 RMK A01 T01330009  RH  043%=      5-min Rain = 0
KSM2 191538Z 23004KT 13/01 A2998 RMK A01 T01340009  RH  043%=      5-min Rain = 0
KSM2 191539Z 22004KT 14/01 A2998 RMK A01 T01350007  RH  042%=      5-min Rain = 0
KSM2 191540Z 20004KT 14/01 A2998 RMK A01 T01370013  RH  043%=      5-min Rain = 0
KSM2 191541Z 19003KT 14/01 A2998 RMK A01 T01380009  RH  041%=      5-min Rain = 0
KSM2 191542Z 18004KT 14/01 A2998 RMK A01 T01390007  RH  041%=      5-min Rain = 0
KSM2 191543Z 20005KT 14/01 A2998 RMK A01 T01390009  RH  041%=      5-min Rain = 0
KSM2 191544Z 20003KT 14/01 A2998 RMK A01 T01400009  RH  041%=      5-min Rain = 0
KSM2 191545Z 20004KT 14/01 A2998 RMK A01 T01410010  RH  041%=      5-min Rain = 0
KSM2 191546Z 21004KT 14/01 A2998 RMK A01 T01420011  RH  041%=      5-min Rain = 0
KSM2 191547Z 21003KT 14/01 A2998 RMK A01 T01440012  RH  041%=      5-min Rain = 0
KSM2 191548Z 21004KT 15/01 A2998 RMK A01 T01450012  RH  040%=      5-min Rain = 0
KSM2 191549Z 19004KT 15/01 A2998 RMK A01 T01460010  RH  040%=      5-min Rain = 0
KSM2 191550Z 20003KT 15/01 A2998 RMK A01 T01470010  RH  039%=      5-min Rain = 0
KSM2 191551Z 18003KT 15/01 A2998 RMK A01 T01470009  RH  039%=      5-min Rain = 0
KSM2 191552Z 17003KT 15/01 A2998 RMK A01 T01480010  RH  039%=      5-min Rain = 0
KSM2 191553Z 17004KT 15/01 A2998 RMK A01 T01480009  RH  039%=      5-min Rain = 0
KSM2 191554Z 19003KT 15/01 A2998 RMK A01 T01480011  RH  039%=      5-min Rain = 0
KSM2 191555Z 21003KT 15/01 A2998 RMK A01 T01490012  RH  039%=      5-min Rain = 0
KSM2 191556Z 21003KT 15/01 A2998 RMK A01 T01490010  RH  039%=      5-min Rain = 0
KSM2 191557Z 21003KT 15/01 A2998 RMK A01 T01490011  RH  039%=      5-min Rain = 0
KSM2 191558Z 21004KT 15/01 A2998 RMK A01 T01500010  RH  039%=      5-min Rain = 0
KSM2 191559Z 20005KT 15/01 A2998 RMK A01 T01510008  RH  038%=      5-min Rain = 0
KSM2 191600Z 19004KT 15/01 A2998 RMK A01 T01520009  RH  038%=      5-min Rain = 0
KSM2 191601Z 19005KT 15/01 A2998 RMK A01 T01530009  RH  038%=      5-min Rain = 0
KSM2 191602Z 18006KT 15/01 A2998 RMK A01 T01530009  RH  038%=      5-min Rain = 0
KSM2 191603Z 18005KT 15/01 A2997 RMK A01 T01530009  RH  038%=      5-min Rain = 0
KSM2 191604Z 18005KT 15/01 A2997 RMK A01 T01540010  RH  038%=      5-min Rain = 0
KSM2 191605Z 18005KT 16/01 A2998 RMK A01 T01550010  RH  037%=      5-min Rain = 0
KSM2 191606Z 17005KT 16/01 A2998 RMK A01 T01550009  RH  037%=      5-min Rain = 0
KSM2 191607Z 16003KT 16/01 A2998 RMK A01 T01550011  RH  037%=      5-min Rain = 0
KSM2 191608Z 16002KT 16/01 A2998 RMK A01 T01570010  RH  037%=      5-min Rain = 0
KSM2 191609Z 17004KT 16/01 A2998 RMK A01 T01600012  RH  037%=      5-min Rain = 0
KSM2 191610Z 16004KT 16/01 A2998 RMK A01 T01600012  RH  037%=      5-min Rain = 0
KSM2 191611Z 14004KT 16/01 A2998 RMK A01 T01600013  RH  037%=      5-min Rain = 0
KSM2 191612Z 15005KT 16/01 A2998 RMK A01 T01620014  RH  037%=      5-min Rain = 0
KSM2 191613Z 16004KT 16/01 A2998 RMK A01 T01640014  RH  036%=      5-min Rain = 0
KSM2 191614Z 13005KT 16/02 A2998 RMK A01 T01640015  RH  036%=      5-min Rain = 0
KSM2 191615Z 15005KT 16/02 A2998 RMK A01 T01640015  RH  036%=      5-min Rain = 0
KSM2 191616Z 15005KT 17/02 A2998 RMK A01 T01660015  RH  036%=      5-min Rain = 0
KSM2 191617Z 15004KT 17/02 A2997 RMK A01 T01660015  RH  036%=      5-min Rain = 0
KSM2 191618Z 15004KT 17/01 A2997 RMK A01 T01690014  RH  035%=      5-min Rain = 0
KSM2 191619Z 17004KT 17/02 A2997 RMK A01 T01710015  RH  035%=      5-min Rain = 0
KSM2 191620Z 18005KT 17/02 A2997 RMK A01 T01740015  RH  034%=      5-min Rain = 0
KSM2 191621Z 19006KT 17/01 A2997 RMK A01 T01740010  RH  033%=      5-min Rain = 0
KSM2 191622Z 18007KT 17/01 A2997 RMK A01 T01740009  RH  033%=      5-min Rain = 0
KSM2 191623Z 16007KT 17/01 A2997 RMK A01 T01740008  RH  033%=      5-min Rain = 0
KSM2 191624Z 15008KT 17/01 A2997 RMK A01 T01740006  RH  032%=      5-min Rain = 0
KSM2 191625Z 16008KT 17/01 A2997 RMK A01 T01740006  RH  032%=      5-min Rain = 0
KSM2 191626Z 16007KT 17/01 A2997 RMK A01 T01740007  RH  032%=      5-min Rain = 0
KSM2 191627Z 16008KT 18/01 A2997 RMK A01 T01750007  RH  032%=      5-min Rain = 0
KSM2 191628Z 17007KT 17/01 A2997 RMK A01 T01740008  RH  033%=      5-min Rain = 0
KSM2 191629Z 16006KT 17/01 A2997 RMK A01 T01740009  RH  033%=      5-min Rain = 0
KSM2 191630Z 15007KT 18/01 A2997 RMK A01 T01750010  RH  033%=      5-min Rain = 0
KSM2 191631Z 16006KT 18/01 A2997 RMK A01 T01760010  RH  033%=      5-min Rain = 0
KSM2 191632Z 16008KT 18/01 A2997 RMK A01 T01790011  RH  032%=      5-min Rain = 0
KSM2 191633Z 17008KT 18/01 A2997 RMK A01 T01790008  RH  031%=      5-min Rain = 0
KSM2 191634Z 17008KT 18/01 A2997 RMK A01 T01790005  RH  031%=      5-min Rain = 0
KSM2 191635Z 16008KT 18/00 A2997 RMK A01 T01780004  RH  031%=      5-min Rain = 0
KSM2 191636Z 16007KT 18/01 A2997 RMK A01 T01790006  RH  031%=      5-min Rain = 0
KSM2 191637Z 16007KT 18/01 A2997 RMK A01 T01810010  RH  032%=      5-min Rain = 0
KSM2 191638Z 18009KT 18/01 A2997 RMK A01 T01820007  RH  031%=      5-min Rain = 0
KSM2 191639Z 16010KT 18/01 A2997 RMK A01 T01810007  RH  031%=      5-min Rain = 0
KSM2 191640Z 16010KT 18/01 A2997 RMK A01 T01810007  RH  031%=      5-min Rain = 0
KSM2 191641Z 16009KT 18/01 A2997 RMK A01 T01810007  RH  031%=      5-min Rain = 0
KSM2 191642Z 16007KT 18/01 A2997 RMK A01 T01820008  RH  031%=      5-min Rain = 0
KSM2 191643Z 17006KT 18/01 A2996 RMK A01 T01840011  RH  031%=      5-min Rain = 0
KSM2 191644Z 18006KT 19/01 A2996 RMK A01 T01870010  RH  030%=      5-min Rain = 0
KSM2 191645Z 16006KT 19/01 A2996 RMK A01 T01880010  RH  030%=      5-min Rain = 0
KSM2 191646Z 17009KT 19/01 A2997 RMK A01 T01880009  RH  030%=      5-min Rain = 0
KSM2 191647Z 18008KT 19/01 A2997 RMK A01 T01870007  RH  030%=      5-min Rain = 0
KSM2 191648Z 19009KT 19/01 A2997 RMK A01 T01860007  RH  030%=      5-min Rain = 0
KSM2 191649Z 19011KT 19/01 A2997 RMK A01 T01860007  RH  030%=      5-min Rain = 0
KSM2 191650Z 19010KT 18/01 A2996 RMK A01 T01840007  RH  030%=      5-min Rain = 0
KSM2 191651Z 19008KT 18/01 A2997 RMK A01 T01840010  RH  031%=      5-min Rain = 0
KSM2 191652Z 18008KT 19/01 A2997 RMK A01 T01850012  RH  031%=      5-min Rain = 0
KSM2 191653Z 17009KT 19/01 A2997 RMK A01 T01870013  RH  031%=      5-min Rain = 0
KSM2 191654Z 17009KT 19/01 A2997 RMK A01 T01870011  RH  031%=      5-min Rain = 0
KSM2 191655Z 17009KT 19/01 A2997 RMK A01 T01860010  RH  031%=      5-min Rain = 0
KSM2 191656Z 17009KT 19/01 A2997 RMK A01 T01850012  RH  031%=      5-min Rain = 0
KSM2 191657Z 18011KT 19/01 A2997 RMK A01 T01850010  RH  031%=      5-min Rain = 0
KSM2 191658Z 18009KT 19/01 A2997 RMK A01 T01850012  RH  031%=      5-min Rain = 0
KSM2 191659Z 17008KT 18/01 A2996 RMK A01 T01840012  RH  031%=      5-min Rain = 0
KSM2 191700Z 17008KT 19/01 A2996 RMK A01 T01860012  RH  031%=      5-min Rain = 0
KSM2 191701Z 19010KT 19/01 A2996 RMK A01 T01870013  RH  031%=      5-min Rain = 0
KSM2 191702Z 18010KT 19/01 A2996 RMK A01 T01880012  RH  031%=      5-min Rain = 0
KSM2 191703Z 18007KT 19/01 A2996 RMK A01 T01860013  RH  031%=      5-min Rain = 0
KSM2 191704Z 18007KT 19/02 A2996 RMK A01 T01870016  RH  032%=      5-min Rain = 0
KSM2 191705Z 18008KT 19/02 A2996 RMK A01 T01880015  RH  031%=      5-min Rain = 0
KSM2 191706Z 18007KT 19/02 A2996 RMK A01 T01890015  RH  031%=      5-min Rain = 0
KSM2 191707Z 19010KT 19/02 A2996 RMK A01 T01900016  RH  031%=      5-min Rain = 0
KSM2 191708Z 19010KT 19/01 A2996 RMK A01 T01900012  RH  030%=      5-min Rain = 0
KSM2 191709Z 18008KT 19/01 A2996 RMK A01 T01870013  RH  031%=      5-min Rain = 0
KSM2 191710Z 18009KT 19/01 A2996 RMK A01 T01870013  RH  031%=      5-min Rain = 0
KSM2 191711Z 19010KT 19/01 A2996 RMK A01 T01870014  RH  031%=      5-min Rain = 0
KSM2 191712Z 18008KT 19/01 A2996 RMK A01 T01880014  RH  031%=      5-min Rain = 0
KSM2 191713Z 18012KT 19/01 A2996 RMK A01 T01910012  RH  030%=      5-min Rain = 0
KSM2 191714Z 18011KT 19/01 A2996 RMK A01 T01900010  RH  030%=      5-min Rain = 0
KSM2 191715Z 17009KT 19/01 A2996 RMK A01 T01880010  RH  030%=      5-min Rain = 0
KSM2 191716Z 19008KT 19/01 A2996 RMK A01 T01880011  RH  031%=      5-min Rain = 0
KSM2 191717Z 20010KT 19/01 A2996 RMK A01 T01900011  RH  030%=      5-min Rain = 0
KSM2 191718Z 19009KT 19/01 A2996 RMK A01 T01920011  RH  030%=      5-min Rain = 0
KSM2 191719Z 17009KT 19/01 A2996 RMK A01 T01930013  RH  030%=      5-min Rain = 0
KSM2 191720Z 17007KT 20/01 A2996 RMK A01 T01950013  RH  030%=      5-min Rain = 0
KSM2 191721Z 19009KT 20/01 A2996 RMK A01 T01950013  RH  030%=      5-min Rain = 0
KSM2 191722Z 19010KT 20/01 A2996 RMK A01 T01970012  RH  029%=      5-min Rain = 0
KSM2 191723Z 19011KT 20/01 A2996 RMK A01 T01970009  RH  028%=      5-min Rain = 0
KSM2 191724Z 19009KT 20/01 A2995 RMK A01 T01960008  RH  029%=      5-min Rain = 0
KSM2 191725Z 18008KT 20/01 A2995 RMK A01 T01950009  RH  029%=      5-min Rain = 0
KSM2 191726Z 18010KT 20/01 A2996 RMK A01 T01960009  RH  028%=      5-min Rain = 0
KSM2 191727Z 19010KT 20/01 A2995 RMK A01 T01970009  RH  029%=      5-min Rain = 0
KSM2 191728Z 19008KT 20/01 A2995 RMK A01 T01970011  RH  029%=      5-min Rain = 0
KSM2 191729Z 18009KT 20/01 A2995 RMK A01 T01970011  RH  029%=      5-min Rain = 0
KSM2 191730Z 18009KT 20/01 A2995 RMK A01 T01980012  RH  029%=      5-min Rain = 0
KSM2 191731Z 18011KT 20/01 A2995 RMK A01 T01990011  RH  028%=      5-min Rain = 0
KSM2 191732Z 18009KT 20/01 A2995 RMK A01 T01990012  RH  029%=      5-min Rain = 0
KSM2 191733Z 18009KT 20/01 A2995 RMK A01 T01990012  RH  029%=      5-min Rain = 0
KSM2 191734Z 19011KT 20/01 A2995 RMK A01 T01990007  RH  028%=      5-min Rain = 0
KSM2 191735Z 20011KT 20/01 A2995 RMK A01 T01990006  RH  027%=      5-min Rain = 0
KSM2 191736Z 20011KT 20/01 A2995 RMK A01 T01990007  RH  028%=      5-min Rain = 0
KSM2 191737Z 18009KT 20/01 A2995 RMK A01 T02000009  RH  028%=      5-min Rain = 0
KSM2 191738Z 20011KT 20/01 A2995 RMK A01 T02020010  RH  028%=      5-min Rain = 0
KSM2 191739Z 20012KT 20/01 A2995 RMK A01 T02030011  RH  028%=      5-min Rain = 0
KSM2 191740Z 20010KT 20/01 A2995 RMK A01 T02010010  RH  028%=      5-min Rain = 0
KSM2 191741Z 20010KT 20/01 A2995 RMK A01 T02000010  RH  028%=      5-min Rain = 0
KSM2 191742Z 19010KT 20/01 A2995 RMK A01 T01990010  RH  028%=      5-min Rain = 0
KSM2 191743Z 20011KT 20/01 A2995 RMK A01 T02010010  RH  028%=      5-min Rain = 0
KSM2 191744Z 19011KT 20/01 A2994 RMK A01 T02010008  RH  027%=      5-min Rain = 0
KSM2 191745Z 20012KT 20/01 A2994 RMK A01 T02010007  RH  027%=      5-min Rain = 0
KSM2 191746Z 19013KT 20/01 A2994 RMK A01 T02020005  RH  027%=      5-min Rain = 0
KSM2 191747Z 19012KT 20/01 A2994 RMK A01 T02020005  RH  027%=      5-min Rain = 0
KSM2 191748Z 19012KT 20/01 A2994 RMK A01 T02020005  RH  027%=      5-min Rain = 0
KSM2 191749Z 19012KT 20/00 A2994 RMK A01 T02020004  RH  027%=      5-min Rain = 0
KSM2 191750Z 19013KT 20/01 A2994 RMK A01 T02030005  RH  027%=      5-min Rain = 0
KSM2 191751Z 19010KT 20/01 A2994 RMK A01 T02040005  RH  026%=      5-min Rain = 0
KSM2 191752Z 20012KT 20/01 A2994 RMK A01 T02040005  RH  027%=      5-min Rain = 0
KSM2 191753Z 20010KT 20/01 A2994 RMK A01 T02040006  RH  027%=      5-min Rain = 0
KSM2 191754Z 20012KT 21/01 A2994 RMK A01 T02050007  RH  027%=      5-min Rain = 0
KSM2 191755Z 19011KT 21/01 A2994 RMK A01 T02060007  RH  027%=      5-min Rain = 0
KSM2 191756Z 18010KT 21/01 A2994 RMK A01 T02050007  RH  027%=      5-min Rain = 0
KSM2 191757Z 20012KT 21/01 A2994 RMK A01 T02060008  RH  027%=      5-min Rain = 0
KSM2 191758Z 19014KT 21/00 A2994 RMK A01 T02070004  RH  026%=      5-min Rain = 0
KSM2 191759Z 19013KT 21/00 A2994 RMK A01 T02060002  RH  026%=      5-min Rain = 0
KSM2 191800Z 20014KT 21/00 A2994 RMK A01 T02050003  RH  026%=      5-min Rain = 0
KSM2 191801Z 20013KT 20/00 A2994 RMK A01 T02030003  RH  026%=      5-min Rain = 0
KSM2 191802Z 19013KT 20/01 A2994 RMK A01 T02020005  RH  027%=      5-min Rain = 0
KSM2 191803Z 19015KT 20/00 A2994 RMK A01 T02020003  RH  026%=      5-min Rain = 0
KSM2 191804Z 19013KT 20/00 A2994 RMK A01 T02010002  RH  026%=      5-min Rain = 0
KSM2 191805Z 19015KT 20/00 A2994 RMK A01 T02010002  RH  026%=      5-min Rain = 0
KSM2 191806Z 20012KT 20/00 A2993 RMK A01 T02030003  RH  026%=      5-min Rain = 0
KSM2 191807Z 20011KT 21/01 A2993 RMK A01 T02060006  RH  026%=      5-min Rain = 0
KSM2 191808Z 20012KT 21/01 A2993 RMK A01 T02090006  RH  026%=      5-min Rain = 0
KSM2 191809Z 19012KT 21/00 A2993 RMK A01 T02090002  RH  025%=      5-min Rain = 0
KSM2 191810Z 19015KT 21/00 A2993 RMK A01 T02080004  RH  026%=      5-min Rain = 0
KSM2 191811Z 20014KT 21/00 A2993 RMK A01 T02080004  RH  026%=      5-min Rain = 0
KSM2 191812Z 20014KT 21/01 A2993 RMK A01 T02080005  RH  026%=      5-min Rain = 0
KSM2 191813Z 20015KT 21/00 A2993 RMK A01 T02100004  RH  025%=      5-min Rain = 0
KSM2 191814Z 20013KT 21/01 A2993 RMK A01 T02110005  RH  025%=      5-min Rain = 0
KSM2 191815Z 20015KT 21/00 A2993 RMK A01 T02120003  RH  025%=      5-min Rain = 0
KSM2 191816Z 19017KT 21/M00 A2993 RMK A01 T02121001  RH  024%=      5-min Rain = 0
KSM2 191817Z 20013KT 21/00 A2993 RMK A01 T02110002  RH  025%=      5-min Rain = 0
KSM2 191818Z 20014KT 21/00 A2993 RMK A01 T02120004  RH  025%=      5-min Rain = 0
KSM2 191819Z 20015G20KT 22/00 A2993 RMK A01 T02150004  RH  025%=      5-min Rain = 0
KSM2 191820Z 20015KT 22/00 A2993 RMK A01 T02150000  RH  024%=      5-min Rain = 0
KSM2 191821Z 20012KT 22/00 A2993 RMK A01 T02150001  RH  024%=      5-min Rain = 0
KSM2 191822Z 19014KT 22/00 A2993 RMK A01 T02160002  RH  024%=      5-min Rain = 0
KSM2 191823Z 20015KT 22/00 A2993 RMK A01 T02170001  RH  024%=      5-min Rain = 0
KSM2 191824Z 19014KT 22/00 A2992 RMK A01 T02160002  RH  024%=      5-min Rain = 0
KSM2 191825Z 19015KT 22/00 A2992 RMK A01 T02160002  RH  024%=      5-min Rain = 0
KSM2 191826Z 20011KT 22/01 A2992 RMK A01 T02170005  RH  024%=      5-min Rain = 0
KSM2 191827Z 20011KT 22/01 A2992 RMK A01 T02190006  RH  024%=      5-min Rain = 0
KSM2 191828Z 20013KT 22/01 A2992 RMK A01 T02200005  RH  024%=      5-min Rain = 0
KSM2 191829Z 20013KT 22/00 A2992 RMK A01 T02190003  RH  024%=      5-min Rain = 0
KSM2 191830Z 20014KT 22/00 A2992 RMK A01 T02190004  RH  024%=      5-min Rain = 0
KSM2 191831Z 20014KT 22/00 A2992 RMK A01 T02180003  RH  024%=      5-min Rain = 0
KSM2 191832Z 21014KT 22/00 A2992 RMK A01 T02150003  RH  024%=      5-min Rain = 0
KSM2 191833Z 21013KT 22/00 A2992 RMK A01 T02150002  RH  024%=      5-min Rain = 0
KSM2 191834Z 20013G19KT 22/00 A2992 RMK A01 T02170002  RH  024%=      5-min Rain = 0
KSM2 191835Z 19017KT 22/M00 A2992 RMK A01 T02171001  RH  023%=      5-min Rain = 0
KSM2 191836Z 20015KT 22/M01 A2992 RMK A01 T02151005  RH  023%=      5-min Rain = 0
KSM2 191837Z 19016KT 22/M01 A2992 RMK A01 T02151005  RH  023%=      5-min Rain = 0
KSM2 191838Z 19015KT 22/M01 A2991 RMK A01 T02181006  RH  023%=      5-min Rain = 0
KSM2 191839Z 19012G17KT 22/M00 A2991 RMK A01 T02211002  RH  023%=      5-min Rain = 0
KSM2 191840Z 19014G19KT 23/M00 A2991 RMK A01 T02251001  RH  022%=      5-min Rain = 0
KSM2 191841Z 19017KT 23/M01 A2991 RMK A01 T02261006  RH  021%=      5-min Rain = 0
KSM2 191842Z 19019KT 22/M01 A2991 RMK A01 T02241009  RH  021%=      5-min Rain = 0
KSM2 191843Z 20019KT 22/M01 A2991 RMK A01 T02241010  RH  021%=      5-min Rain = 0
KSM2 191844Z 20019KT 22/M01 A2991 RMK A01 T02241009  RH  021%=      5-min Rain = 0
KSM2 191845Z 19019KT 23/M01 A2991 RMK A01 T02251009  RH  021%=      5-min Rain = 0
KSM2 191846Z 20017KT 23/M01 A2991 RMK A01 T02251010  RH  021%=      5-min Rain = 0
KSM2 191847Z 20016G21KT 23/M01 A2991 RMK A01 T02251008  RH  021%=      5-min Rain = 0
KSM2 191848Z 19017KT 23/M01 A2991 RMK A01 T02271008  RH  021%=      5-min Rain = 0
KSM2 191849Z 19018KT 23/M01 A2991 RMK A01 T02291010  RH  020%=      5-min Rain = 0
KSM2 191850Z 19018G23KT 23/M01 A2991 RMK A01 T02291011  RH  020%=      5-min Rain = 0
KSM2 191851Z 19020KT 23/M01 A2991 RMK A01 T02291014  RH  020%=      5-min Rain = 0
KSM2 191852Z 20017KT 23/M01 A2991 RMK A01 T02281014  RH  020%=      5-min Rain = 0
KSM2 191853Z 19016KT 23/M01 A299 RMK A01 T02291011  RH  020%=      5-min Rain = 0
KSM2 191854Z 20017KT 23/M01 A299 RMK A01 T02311011  RH  020%=      5-min Rain = 0
KSM2 191855Z 19018KT 23/M01 A299 RMK A01 T02311014  RH  020%=      5-min Rain = 0
KSM2 191856Z 19017G22KT 23/M01 A299 RMK A01 T02291014  RH  020%=      5-min Rain = 0
KSM2 191857Z 19018KT 23/M01 A299 RMK A01 T02291012  RH  020%=      5-min Rain = 0
KSM2 191858Z 20017G22KT 23/M01 A299 RMK A01 T02301011  RH  020%=      5-min Rain = 0
KSM2 191859Z 20017KT 23/M01 A299 RMK A01 T02311012  RH  020%=      5-min Rain = 0
KSM2 191900Z 20015KT 23/M01 A299 RMK A01 T02301012  RH  020%=      5-min Rain = 0
KSM2 191901Z 19016G21KT 23/M01 A299 RMK A01 T02311010  RH  020%=      5-min Rain = 0
KSM2 191902Z 20015KT 23/M01 A299 RMK A01 T02321010  RH  020%=      5-min Rain = 0
KSM2 191903Z 20015KT 23/M01 A299 RMK A01 T02321010  RH  020%=      5-min Rain = 0
KSM2 191904Z 20016KT 23/M01 A299 RMK A01 T02311008  RH  020%=      5-min Rain = 0
KSM2 191905Z 20017KT 23/M01 A299 RMK A01 T02321009  RH  020%=      5-min Rain = 0
KSM2 191906Z 21015KT 23/M01 A299 RMK A01 T02311009  RH  020%=      5-min Rain = 0
KSM2 191907Z 19016G23KT 23/M01 A299 RMK A01 T02301010  RH  020%=      5-min Rain = 0
KSM2 191908Z 19014KT 23/M01 A299 RMK A01 T02311008  RH  020%=      5-min Rain = 0
KSM2 191909Z 19018KT 23/M01 A299 RMK A01 T02341010  RH  020%=      5-min Rain = 0
KSM2 191910Z 20018KT 23/M01 A299 RMK A01 T02321012  RH  020%=      5-min Rain = 0
KSM2 191911Z 19017G22KT 23/M01 A299 RMK A01 T02311012  RH  020%=      5-min Rain = 0
KSM2 191912Z 20016KT 23/M01 A2989 RMK A01 T02321011  RH  020%=      5-min Rain = 0
KSM2 191913Z 19019KT 23/M01 A299 RMK A01 T02341010  RH  020%=      5-min Rain = 0
KSM2 191914Z 20013KT 23/M01 A2989 RMK A01 T02341009  RH  020%=      5-min Rain = 0
KSM2 191915Z 20012KT 24/M01 A2989 RMK A01 T02361009  RH  020%=      5-min Rain = 0
KSM2 191916Z 21015KT 24/M01 A2989 RMK A01 T02371009  RH  019%=      5-min Rain = 0
KSM2 191917Z 19015KT 24/M01 A2989 RMK A01 T02361011  RH  019%=      5-min Rain = 0
KSM2 191918Z 19013KT 24/M01 A2989 RMK A01 T02361011  RH  019%=      5-min Rain = 0
KSM2 191919Z 19013KT 24/M01 A2989 RMK A01 T02371009  RH  020%=      5-min Rain = 0
KSM2 191920Z 19015KT 24/M01 A2989 RMK A01 T02391009  RH  019%=      5-min Rain = 0
KSM2 191921Z 19014KT 24/M01 A2989 RMK A01 T02391010  RH  019%=      5-min Rain = 0
KSM2 191922Z 21016KT 24/M01 A2989 RMK A01 T02361011  RH  019%=      5-min Rain = 0
KSM2 191923Z 20014KT 23/M01 A2989 RMK A01 T02341010  RH  020%=      5-min Rain = 0
KSM2 191924Z 19016KT 23/M01 A2989 RMK A01 T02341010  RH  020%=      5-min Rain = 0
KSM2 191925Z 19018KT 24/M01 A2989 RMK A01 T02351009  RH  020%=      5-min Rain = 0
KSM2 191926Z 19018G23KT 24/M01 A2989 RMK A01 T02351009  RH  020%=      5-min Rain = 0
KSM2 191927Z 20015KT 24/M01 A2989 RMK A01 T02361010  RH  020%=      5-min Rain = 0
KSM2 191928Z 20014KT 24/M01 A2989 RMK A01 T02361010  RH  020%=      5-min Rain = 0
KSM2 191929Z 21016KT 24/M01 A2989 RMK A01 T02361009  RH  020%=      5-min Rain = 0
KSM2 191930Z 20016G22KT 24/M01 A2988 RMK A01 T02351009  RH  020%=      5-min Rain = 0
KSM2 191931Z 19016KT 24/M01 A2989 RMK A01 T02351010  RH  020%=      5-min Rain = 0
KSM2 191932Z 20019KT 24/M01 A2989 RMK A01 T02361010  RH  019%=      5-min Rain = 0
KSM2 191933Z 19017KT 24/M01 A2989 RMK A01 T02361011  RH  019%=      5-min Rain = 0
KSM2 191934Z 19015KT 24/M01 A2988 RMK A01 T02351009  RH  020%=      5-min Rain = 0
KSM2 191935Z 19013KT 24/M01 A2988 RMK A01 T02351009  RH  020%=      5-min Rain = 0
KSM2 191936Z 22017KT 24/M01 A2988 RMK A01 T02381008  RH  020%=      5-min Rain = 0
KSM2 191937Z 21014KT 24/M01 A2988 RMK A01 T02401011  RH  019%=      5-min Rain = 0
KSM2 191938Z 20012KT 24/M01 A2988 RMK A01 T02391011  RH  019%=      5-min Rain = 0
KSM2 191939Z 21015KT 24/M01 A2988 RMK A01 T02391010  RH  019%=      5-min Rain = 0
KSM2 191940Z 22013KT 24/M01 A2988 RMK A01 T02401012  RH  019%=      5-min Rain = 0
KSM2 191941Z 20012KT 24/M01 A2988 RMK A01 T02421010  RH  019%=      5-min Rain = 0
KSM2 191942Z 20016G21KT 24/M01 A2988 RMK A01 T02441008  RH  019%=      5-min Rain = 0
KSM2 191943Z 21015KT 24/M01 A2988 RMK A01 T02441011  RH  018%=      5-min Rain = 0
KSM2 191944Z 21013KT 24/M01 A2988 RMK A01 T02441011  RH  018%=      5-min Rain = 0
KSM2 191945Z 21014KT 24/M01 A2988 RMK A01 T02441011  RH  018%=      5-min Rain = 0
KSM2 191946Z 21015G21KT 24/M01 A2988 RMK A01 T02441013  RH  018%=      5-min Rain = 0
KSM2 191947Z 21017KT 24/M02 A2987 RMK A01 T02431015  RH  018%=      5-min Rain = 0
KSM2 191948Z 21018KT 24/M01 A2988 RMK A01 T02421014  RH  018%=      5-min Rain = 0
KSM2 191949Z 21013KT 24/M01 A2987 RMK A01 T02401014  RH  019%=      5-min Rain = 0
KSM2 191950Z 22016KT 24/M01 A2987 RMK A01 T02401012  RH  019%=      5-min Rain = 0
KSM2 191951Z 22018KT 24/M01 A2987 RMK A01 T02401012  RH  019%=      5-min Rain = 0
KSM2 191952Z 21016KT 24/M01 A2987 RMK A01 T02401011  RH  019%=      5-min Rain = 0
KSM2 191953Z 21012G17KT 24/M01 A2987 RMK A01 T02401010  RH  019%=      5-min Rain = 0
KSM2 191954Z 20013KT 24/M01 A2987 RMK A01 T02431006  RH  019%=      5-min Rain = 0
KSM2 191955Z 21017KT 25/M01 A2987 RMK A01 T02451011  RH  018%=      5-min Rain = 0
KSM2 191956Z 21017KT 24/M02 A2987 RMK A01 T02431016  RH  018%=      5-min Rain = 0
KSM2 191957Z 20016KT 24/M01 A2987 RMK A01 T02411013  RH  019%=      5-min Rain = 0
KSM2 191958Z 22016KT 24/M01 A2987 RMK A01 T02401013  RH  019%=      5-min Rain = 0
KSM2 191959Z 21017KT 24/M01 A2987 RMK A01 T02411013  RH  019%=      5-min Rain = 0
KSM2 192000Z 20017KT 24/M01 A2987 RMK A01 T02401013  RH  019%=      5-min Rain = 0
KSM2 192001Z 20015KT 24/M01 A2986 RMK A01 T02401013  RH  019%=      5-min Rain = 0
KSM2 192002Z 20015KT 24/M01 A2986 RMK A01 T02411013  RH  019%=      5-min Rain = 0
KSM2 192003Z 20011KT 24/M01 A2986 RMK A01 T02401013  RH  019%=      5-min Rain = 0
KSM2 192004Z 19012G17KT 24/M01 A2986 RMK A01 T02421009  RH  019%=      5-min Rain = 0
KSM2 192005Z 19015KT 24/M01 A2986 RMK A01 T02441013  RH  018%=      5-min Rain = 0
KSM2 192006Z 21013KT 25/M01 A2986 RMK A01 T02451013  RH  018%=      5-min Rain = 0
KSM2 192007Z 21017KT 24/M01 A2986 RMK A01 T02441014  RH  018%=      5-min Rain = 0
KSM2 192008Z 21015KT 24/M01 A2986 RMK A01 T02441013  RH  018%=      5-min Rain = 0
KSM2 192009Z 21013KT 24/M01 A2986 RMK A01 T02421012  RH  018%=      5-min Rain = 0
KSM2 192010Z 21014KT 24/M01 A2986 RMK A01 T02421010  RH  019%=      5-min Rain = 0
KSM2 192011Z 19016KT 24/M01 A2986 RMK A01 T02441011  RH  018%=      5-min Rain = 0
KSM2 192012Z 18015KT 24/M01 A2986 RMK A01 T02441013  RH  018%=      5-min Rain = 0
KSM2 192013Z 19016KT 24/M01 A2986 RMK A01 T02441011  RH  018%=      5-min Rain = 0
KSM2 192014Z 19017KT 25/M01 A2986 RMK A01 T02451013  RH  018%=      5-min Rain = 0
KSM2 192015Z 19015KT 25/M01 A2986 RMK A01 T02451012  RH  018%=      5-min Rain = 0
KSM2 192016Z 18016KT 25/M01 A2986 RMK A01 T02461011  RH  018%=      5-min Rain = 0
KSM2 192017Z 18016G21KT 25/M01 A2985 RMK A01 T02461013  RH  018%=      5-min Rain = 0
KSM2 192018Z 19018KT 25/M01 A2985 RMK A01 T02451011  RH  018%=      5-min Rain = 0
KSM2 192019Z 21016KT 25/M01 A2985 RMK A01 T02451011  RH  018%=      5-min Rain = 0
KSM2 192020Z 19014KT 24/M01 A2985 RMK A01 T02431011  RH  018%=      5-min Rain = 0
KSM2 192021Z 21014KT 24/M01 A2985 RMK A01 T02441010  RH  019%=      5-min Rain = 0
KSM2 192022Z 21017KT 25/M01 A2985 RMK A01 T02461010  RH  018%=      5-min Rain = 0
KSM2 192023Z 21015KT 25/M01 A2985 RMK A01 T02491011  RH  018%=      5-min Rain = 0
KSM2 192024Z 21013KT 25/M01 A2985 RMK A01 T02491012  RH  018%=      5-min Rain = 0
KSM2 192025Z 21014G19KT 25/M01 A2985 RMK A01 T02471012  RH  018%=      5-min Rain = 0
KSM2 192026Z 20017KT 25/M01 A2985 RMK A01 T02471012  RH  018%=      5-min Rain = 0
KSM2 192027Z 20016KT 25/M01 A2985 RMK A01 T02471013  RH  018%=      5-min Rain = 0
KSM2 192028Z 20014KT 25/M01 A2985 RMK A01 T02451014  RH  018%=      5-min Rain = 0
KSM2 192029Z 21014KT 25/M01 A2985 RMK A01 T02451013  RH  018%=      5-min Rain = 0
KSM2 192030Z 20013KT 25/M01 A2985 RMK A01 T02451011  RH  018%=      5-min Rain = 0
KSM2 192031Z 20014KT 25/M01 A2985 RMK A01 T02461010  RH  018%=      5-min Rain = 0
KSM2 192032Z 19014G20KT 25/M01 A2985 RMK A01 T02471009  RH  018%=      5-min Rain = 0
KSM2 192033Z 19015G20KT 25/M01 A2985 RMK A01 T02481010  RH  018%=      5-min Rain = 0
KSM2 192034Z 19015KT 25/M01 A2985 RMK A01 T02481010  RH  018%=      5-min Rain = 0
KSM2 192035Z 19015KT 25/M01 A2985 RMK A01 T02481011  RH  018%=      5-min Rain = 0
KSM2 192036Z 18014KT 25/M01 A2985 RMK A01 T02481010  RH  018%=      5-min Rain = 0
KSM2 192037Z 19016KT 25/M01 A2985 RMK A01 T02471011  RH  018%=      5-min Rain = 0
KSM2 192038Z 19017KT 25/M01 A2985 RMK A01 T02471011  RH  018%=      5-min Rain = 0
KSM2 192039Z 19018KT 25/M01 A2985 RMK A01 T02471012  RH  018%=      5-min Rain = 0
KSM2 192040Z 20015G20KT 25/M01 A2984 RMK A01 T02451012  RH  018%=      5-min Rain = 0
KSM2 192041Z 20016KT 25/M01 A2985 RMK A01 T02451012  RH  018%=      5-min Rain = 0
KSM2 192042Z 20013KT 24/M01 A2984 RMK A01 T02421014  RH  018%=      5-min Rain = 0
KSM2 192043Z 20012KT 24/M01 A2984 RMK A01 T02411012  RH  019%=      5-min Rain = 0
KSM2 192044Z 21013KT 24/M01 A2984 RMK A01 T02391013  RH  019%=      5-min Rain = 0
KSM2 192045Z 20014KT 24/M01 A2984 RMK A01 T02371014  RH  019%=      5-min Rain = 0
KSM2 192046Z 20013KT 24/M01 A2984 RMK A01 T02361014  RH  019%=      5-min Rain = 0
KSM2 192047Z 19011G16KT 24/M01 A2984 RMK A01 T02351014  RH  019%=      5-min Rain = 0
KSM2 192048Z 19014KT 24/M01 A2984 RMK A01 T02351013  RH  019%=      5-min Rain = 0
KSM2 192049Z 19013KT 24/M01 A2984 RMK A01 T02351014  RH  019%=      5-min Rain = 0
KSM2 192050Z 19011KT 23/M01 A2984 RMK A01 T02341014  RH  019%=      5-min Rain = 0
KSM2 192051Z 19011KT 23/M01 A2984 RMK A01 T02341013  RH  019%=      5-min Rain = 0
KSM2 192052Z 19010KT 24/M01 A2984 RMK A01 T02371012  RH  019%=      5-min Rain = 0
KSM2 192053Z 18011KT 24/M01 A2984 RMK A01 T02401011  RH  019%=      5-min Rain = 0
KSM2 192054Z 19012KT 24/M01 A2984 RMK A01 T02421011  RH  019%=      5-min Rain = 0
KSM2 192055Z 19014KT 24/M01 A2984 RMK A01 T02431013  RH  018%=      5-min Rain = 0
KSM2 192056Z 18012KT 24/M01 A2984 RMK A01 T02441012  RH  018%=      5-min Rain = 0
KSM2 192057Z 19013KT 25/M01 A2984 RMK A01 T02461012  RH  018%=      5-min Rain = 0
KSM2 192058Z 19011KT 25/M01 A2984 RMK A01 T02471012  RH  018%=      5-min Rain = 0
KSM2 192059Z 19013KT 25/M01 A2984 RMK A01 T02471012  RH  018%=      5-min Rain = 0
KSM2 192100Z 18011KT 25/M01 A2984 RMK A01 T02471013  RH  018%=      5-min Rain = 0
KSM2 192101Z 18012KT 25/M01 A2984 RMK A01 T02461014  RH  018%=      5-min Rain = 0
KSM2 192102Z 19010KT 25/M01 A2984 RMK A01 T02461014  RH  018%=      5-min Rain = 0
KSM2 192103Z 18012KT 24/M01 A2984 RMK A01 T02441014  RH  018%=      5-min Rain = 0
KSM2 192104Z 18011KT 24/M02 A2983 RMK A01 T02421016  RH  018%=      5-min Rain = 0
KSM2 192105Z 18011KT 24/M02 A2983 RMK A01 T02411016  RH  018%=      5-min Rain = 0
KSM2 192106Z 18009KT 24/M02 A2983 RMK A01 T02401015  RH  018%=      5-min Rain = 0
KSM2 192107Z 19013KT 24/M02 A2983 RMK A01 T02411016  RH  018%=      5-min Rain = 0
KSM2 192108Z 19012KT 24/M02 A2983 RMK A01 T02421017  RH  018%=      5-min Rain = 0
KSM2 192109Z 19014KT 24/M02 A2983 RMK A01 T02421017  RH  018%=      5-min Rain = 0
KSM2 192110Z 20012KT 24/M02 A2983 RMK A01 T02411017  RH  018%=      5-min Rain = 0
KSM2 192111Z 19011KT 24/M02 A2983 RMK A01 T02401017  RH  018%=      5-min Rain = 0
KSM2 192112Z 19011KT 24/M02 A2983 RMK A01 T02411017  RH  018%=      5-min Rain = 0
KSM2 192113Z 19012KT 24/M02 A2983 RMK A01 T02421018  RH  018%=      5-min Rain = 0
KSM2 192114Z 18014KT 24/M02 A2983 RMK A01 T02441019  RH  017%=      5-min Rain = 0
KSM2 192115Z 19012KT 24/M02 A2983 RMK A01 T02441020  RH  017%=      5-min Rain = 0
KSM2 192116Z 19014KT 24/M02 A2983 RMK A01 T02441019  RH  017%=      5-min Rain = 0
KSM2 192117Z 20012KT 24/M02 A2983 RMK A01 T02431021  RH  017%=      5-min Rain = 0
KSM2 192118Z 19015KT 24/M02 A2983 RMK A01 T02411022  RH  017%=      5-min Rain = 0
KSM2 192119Z 19015KT 24/M02 A2983 RMK A01 T02401022  RH  017%=      5-min Rain = 0
KSM2 192120Z 19014KT 24/M02 A2983 RMK A01 T02401022  RH  017%=      5-min Rain = 0
KSM2 192121Z 19012KT 24/M02 A2983 RMK A01 T02401021  RH  018%=      5-min Rain = 0
KSM2 192122Z 19012KT 24/M02 A2983 RMK A01 T02401022  RH  017%=      5-min Rain = 0
KSM2 192123Z 18011KT 24/M02 A2983 RMK A01 T02421021  RH  017%=      5-min Rain = 0
KSM2 192124Z 18014KT 24/M02 A2983 RMK A01 T02441021  RH  017%=      5-min Rain = 0
KSM2 192125Z 18013KT 25/M02 A2983 RMK A01 T02451022  RH  017%=      5-min Rain = 0
KSM2 192126Z 19013G20KT 25/M02 A2983 RMK A01 T02461021  RH  017%=      5-min Rain = 0
KSM2 192127Z 20014KT 25/M02 A2983 RMK A01 T02471020  RH  017%=      5-min Rain = 0
KSM2 192128Z 19013KT 25/M02 A2983 RMK A01 T02481022  RH  017%=      5-min Rain = 0
KSM2 192129Z 19013KT 25/M02 A2983 RMK A01 T02491020  RH  017%=      5-min Rain = 0
KSM2 192130Z 20013KT 25/M02 A2983 RMK A01 T02501020  RH  017%=      5-min Rain = 0
KSM2 192131Z 20012KT 25/M02 A2983 RMK A01 T02501021  RH  017%=      5-min Rain = 0
KSM2 192132Z 19012KT 25/M02 A2983 RMK A01 T02501020  RH  017%=      5-min Rain = 0
KSM2 192133Z 19016KT 25/M02 A2983 RMK A01 T02501021  RH  017%=      5-min Rain = 0
KSM2 192134Z 19014KT 25/M02 A2983 RMK A01 T02501022  RH  016%=      5-min Rain = 0
KSM2 192135Z 20016KT 25/M02 A2983 RMK A01 T02511022  RH  016%=      5-min Rain = 0
KSM2 192136Z 20016KT 25/M02 A2983 RMK A01 T02501023  RH  016%=      5-min Rain = 0
KSM2 192137Z 19013KT 25/M02 A2983 RMK A01 T02491021  RH  017%=      5-min Rain = 0
KSM2 192138Z 19015KT 25/M02 A2983 RMK A01 T02511021  RH  016%=      5-min Rain = 0
KSM2 192139Z 18014KT 25/M02 A2983 RMK A01 T02511023  RH  016%=      5-min Rain = 0
KSM2 192140Z 18016G21KT 25/M02 A2983 RMK A01 T02501022  RH  016%=      5-min Rain = 0
KSM2 192141Z 19017KT 25/M02 A2983 RMK A01 T02511023  RH  016%=      5-min Rain = 0
KSM2 192142Z 20016KT 25/M02 A2983 RMK A01 T02501023  RH  016%=      5-min Rain = 0
KSM2 192143Z 20017KT 25/M02 A2983 RMK A01 T02491022  RH  016%=      5-min Rain = 0
KSM2 192144Z 19017KT 25/M02 A2983 RMK A01 T02491023  RH  016%=      5-min Rain = 0
KSM2 192145Z 19014KT 25/M02 A2983 RMK A01 T02491023  RH  016%=      5-min Rain = 0
KSM2 192146Z 19016KT 25/M02 A2983 RMK A01 T02491023  RH  016%=      5-min Rain = 0
KSM2 192147Z 19013KT 25/M02 A2983 RMK A01 T02491024  RH  016%=      5-min Rain = 0
KSM2 192148Z 19014KT 25/M02 A2983 RMK A01 T02491023  RH  016%=      5-min Rain = 0
KSM2 192149Z 19014KT 25/M02 A2983 RMK A01 T02501022  RH  016%=      5-min Rain = 0
KSM2 192150Z 20014KT 25/M02 A2983 RMK A01 T02501022  RH  016%=      5-min Rain = 0
KSM2 192151Z 19016KT 25/M02 A2983 RMK A01 T02501023  RH  016%=      5-min Rain = 0
KSM2 192152Z 19014KT 25/M02 A2982 RMK A01 T02501023  RH  016%=      5-min Rain = 0
KSM2 192153Z 20014KT 25/M02 A2982 RMK A01 T02501023  RH  016%=      5-min Rain = 0
KSM2 192154Z 19013G18KT 25/M02 A2983 RMK A01 T02491022  RH  017%=      5-min Rain = 0
KSM2 192155Z 18015KT 25/M02 A2983 RMK A01 T02491023  RH  016%=      5-min Rain = 0
KSM2 192156Z 19014KT 25/M02 A2982 RMK A01 T02481024  RH  016%=      5-min Rain = 0
KSM2 192157Z 19014KT 25/M02 A2982 RMK A01 T02481023  RH  016%=      5-min Rain = 0
KSM2 192158Z 19016KT 25/M02 A2982 RMK A01 T02481024  RH  016%=      5-min Rain = 0
KSM2 192159Z 19015KT 25/M02 A2982 RMK A01 T02481024  RH  016%=      5-min Rain = 0
KSM2 192200Z 20015KT 25/M02 A2982 RMK A01 T02481024  RH  016%=      5-min Rain = 0
KSM2 192201Z 20015KT 25/M02 A2982 RMK A01 T02481024  RH  016%=      5-min Rain = 0
KSM2 192202Z 19016KT 25/M03 A2982 RMK A01 T02491025  RH  016%=      5-min Rain = 0
KSM2 192203Z 19016KT 25/M02 A2982 RMK A01 T02481024  RH  016%=      5-min Rain = 0
KSM2 192204Z 19016KT 25/M02 A2982 RMK A01 T02481024  RH  016%=      5-min Rain = 0
KSM2 192205Z 19015G20KT 25/M02 A2982 RMK A01 T02481024  RH  016%=      5-min Rain = 0
KSM2 192206Z 19013KT 25/M02 A2982 RMK A01 T02481023  RH  016%=      5-min Rain = 0
KSM2 192207Z 19015KT 25/M02 A2982 RMK A01 T02481023  RH  016%=      5-min Rain = 0
KSM2 192208Z 19013G19KT 25/M02 A2982 RMK A01 T02481023  RH  017%=      5-min Rain = 0
KSM2 192209Z 19015G20KT 25/M02 A2982 RMK A01 T02481024  RH  016%=      5-min Rain = 0
KSM2 192210Z 18012KT 25/M02 A2982 RMK A01 T02481024  RH  016%=      5-min Rain = 0
KSM2 192211Z 18011G17KT 25/M02 A2982 RMK A01 T02481023  RH  017%=      5-min Rain = 0
KSM2 192212Z 19013KT 25/M02 A2982 RMK A01 T02481023  RH  017%=      5-min Rain = 0
KSM2 192213Z 19013KT 25/M02 A2982 RMK A01 T02471022  RH  017%=      5-min Rain = 0
KSM2 192214Z 19013G18KT 25/M02 A2982 RMK A01 T02471022  RH  017%=      5-min Rain = 0
KSM2 192215Z 19014KT 25/M02 A2982 RMK A01 T02471023  RH  017%=      5-min Rain = 0
KSM2 192216Z 19012G17KT 25/M02 A2982 RMK A01 T02471022  RH  017%=      5-min Rain = 0
KSM2 192217Z 19013KT 25/M02 A2982 RMK A01 T02471023  RH  017%=      5-min Rain = 0
KSM2 192218Z 19012KT 25/M02 A2982 RMK A01 T02471024  RH  016%=      5-min Rain = 0
KSM2 192219Z 19014KT 25/M02 A2982 RMK A01 T02461024  RH  017%=      5-min Rain = 0
KSM2 192220Z 20014KT 25/M02 A2982 RMK A01 T02451024  RH  017%=      5-min Rain = 0
KSM2 192221Z 20012KT 25/M02 A2982 RMK A01 T02451024  RH  017%=      5-min Rain = 0
KSM2 192222Z 19012KT 24/M02 A2982 RMK A01 T02441023  RH  017%=      5-min Rain = 0
KSM2 192223Z 19013KT 24/M02 A2982 RMK A01 T02441024  RH  017%=      5-min Rain = 0
KSM2 192224Z 19011KT 24/M02 A2982 RMK A01 T02441023  RH  017%=      5-min Rain = 0
KSM2 192225Z 19013KT 24/M02 A2982 RMK A01 T02441022  RH  017%=      5-min Rain = 0
KSM2 192226Z 19012KT 24/M02 A2982 RMK A01 T02431023  RH  017%=      5-min Rain = 0
KSM2 192227Z 19010KT 24/M02 A2982 RMK A01 T02431023  RH  017%=      5-min Rain = 0
KSM2 192228Z 18011KT 24/M02 A2982 RMK A01 T02431022  RH  017%=      5-min Rain = 0
KSM2 192229Z 19012KT 24/M02 A2982 RMK A01 T02431023  RH  017%=      5-min Rain = 0
KSM2 192230Z 19014KT 25/M02 A2982 RMK A01 T02451022  RH  017%=      5-min Rain = 0
KSM2 192231Z 19011KT 25/M02 A2982 RMK A01 T02451022  RH  017%=      5-min Rain = 0
KSM2 192232Z 19011KT 25/M02 A2982 RMK A01 T02451021  RH  017%=      5-min Rain = 0
KSM2 192233Z 19015KT 25/M02 A2982 RMK A01 T02451023  RH  017%=      5-min Rain = 0
KSM2 192234Z 19015KT 24/M03 A2982 RMK A01 T02441025  RH  017%=      5-min Rain = 0
KSM2 192235Z 18012KT 24/M03 A2982 RMK A01 T02431025  RH  017%=      5-min Rain = 0
KSM2 192236Z 19010KT 24/M02 A2982 RMK A01 T02431023  RH  017%=      5-min Rain = 0
KSM2 192237Z 19015G20KT 24/M02 A2982 RMK A01 T02431024  RH  017%=      5-min Rain = 0
KSM2 192238Z 19016KT 24/M03 A2982 RMK A01 T02431025  RH  017%=      5-min Rain = 0
KSM2 192239Z 19013KT 24/M02 A2982 RMK A01 T02421024  RH  017%=      5-min Rain = 0
KSM2 192240Z 18012KT 24/M02 A2982 RMK A01 T02421023  RH  017%=      5-min Rain = 0
KSM2 192241Z 19012KT 24/M02 A2982 RMK A01 T02421024  RH  017%=      5-min Rain = 0
KSM2 192242Z 18014KT 24/M02 A2982 RMK A01 T02411024  RH  017%=      5-min Rain = 0
KSM2 192243Z 18011KT 24/M02 A2982 RMK A01 T02411024  RH  017%=      5-min Rain = 0
KSM2 192244Z 17013G20KT 24/M02 A2982 RMK A01 T02411024  RH  017%=      5-min Rain = 0
KSM2 192245Z 18016KT 24/M03 A2982 RMK A01 T02411025  RH  017%=      5-min Rain = 0
KSM2 192246Z 18015KT 24/M03 A2982 RMK A01 T02401025  RH  017%=      5-min Rain = 0
KSM2 192247Z 18014KT 24/M03 A2982 RMK A01 T02391025  RH  017%=      5-min Rain = 0
KSM2 192248Z 18013KT 24/M02 A2982 RMK A01 T02381024  RH  017%=      5-min Rain = 0
KSM2 192249Z 19011KT 24/M02 A2982 RMK A01 T02371024  RH  018%=      5-min Rain = 0
KSM2 192250Z 19011KT 24/M02 A2982 RMK A01 T02361023  RH  018%=      5-min Rain = 0
KSM2 192251Z 19011KT 24/M02 A2982 RMK A01 T02361022  RH  018%=      5-min Rain = 0
KSM2 192252Z 19012KT 24/M02 A2982 RMK A01 T02351022  RH  018%=      5-min Rain = 0
KSM2 192253Z 19014KT 23/M02 A2982 RMK A01 T02341022  RH  018%=      5-min Rain = 0
KSM2 192254Z 18011KT 23/M02 A2982 RMK A01 T02341022  RH  018%=      5-min Rain = 0
KSM2 192255Z 19012KT 23/M02 A2982 RMK A01 T02331022  RH  018%=      5-min Rain = 0
KSM2 192256Z 19012KT 23/M02 A2982 RMK A01 T02331022  RH  018%=      5-min Rain = 0
KSM2 192257Z 19013KT 23/M02 A2982 RMK A01 T02331021  RH  018%=      5-min Rain = 0
KSM2 192258Z 19011KT 23/M02 A2982 RMK A01 T02331022  RH  018%=      5-min Rain = 0
KSM2 192259Z 20012KT 23/M02 A2982 RMK A01 T02321021  RH  018%=      5-min Rain = 0
KSM2 192300Z 20014KT 23/M02 A2982 RMK A01 T02311021  RH  018%=      5-min Rain = 0
KSM2 192301Z 19015KT 23/M02 A2982 RMK A01 T02311021  RH  019%=      5-min Rain = 0
KSM2 192302Z 19015KT 23/M02 A2982 RMK A01 T02301022  RH  019%=      5-min Rain = 0
KSM2 192303Z 19012KT 23/M02 A2982 RMK A01 T02291022  RH  019%=      5-min Rain = 0
KSM2 192304Z 20013KT 23/M02 A2982 RMK A01 T02271022  RH  019%=      5-min Rain = 0
KSM2 192305Z 19014KT 23/M02 A2982 RMK A01 T02261022  RH  019%=      5-min Rain = 0
KSM2 192306Z 20012KT 23/M02 A2982 RMK A01 T02261022  RH  019%=      5-min Rain = 0
KSM2 192307Z 19012KT 22/M02 A2982 RMK A01 T02241022  RH  019%=      5-min Rain = 0
KSM2 192308Z 19011KT 22/M02 A2982 RMK A01 T02241021  RH  019%=      5-min Rain = 0
KSM2 192309Z 19014KT 22/M02 A2982 RMK A01 T02221022  RH  019%=      5-min Rain = 0
KSM2 192310Z 19011KT 22/M02 A2982 RMK A01 T02221022  RH  019%=      5-min Rain = 0
KSM2 192311Z 19011KT 22/M02 A2982 RMK A01 T02221021  RH  020%=      5-min Rain = 0
KSM2 192312Z 19011KT 22/M02 A2982 RMK A01 T02221021  RH  020%=      5-min Rain = 0
KSM2 192313Z 19010KT 22/M02 A2982 RMK A01 T02211021  RH  020%=      5-min Rain = 0
KSM2 192314Z 19009KT 22/M02 A2982 RMK A01 T02201020  RH  020%=      5-min Rain = 0
KSM2 192315Z 19010KT 22/M02 A2982 RMK A01 T02191020  RH  020%=      5-min Rain = 0
KSM2 192316Z 19010KT 22/M02 A2982 RMK A01 T02181020  RH  020%=      5-min Rain = 0
KSM2 192317Z 19009KT 22/M02 A2982 RMK A01 T02181020  RH  020%=      5-min Rain = 0
KSM2 192318Z 19008KT 22/M02 A2982 RMK A01 T02171020  RH  020%=      5-min Rain = 0
KSM2 192319Z 18008KT 22/M02 A2982 RMK A01 T02161020  RH  020%=      5-min Rain = 0
KSM2 192320Z 18008KT 22/M02 A2982 RMK A01 T02151020  RH  021%=      5-min Rain = 0
KSM2 192321Z 18007KT 21/M02 A2982 RMK A01 T02141020  RH  021%=      5-min Rain = 0
KSM2 192322Z 19007KT 21/M02 A2982 RMK A01 T02131020  RH  021%=      5-min Rain = 0
KSM2 192323Z 19007KT 21/M02 A2982 RMK A01 T02121019  RH  021%=      5-min Rain = 0
KSM2 192324Z 18007KT 21/M02 A2982 RMK A01 T02111019  RH  021%=      5-min Rain = 0
KSM2 192325Z 18008KT 21/M02 A2982 RMK A01 T02091019  RH  021%=      5-min Rain = 0
KSM2 192326Z 18007KT 21/M02 A2982 RMK A01 T02091019  RH  022%=      5-min Rain = 0
KSM2 192327Z 19006KT 21/M02 A2982 RMK A01 T02081019  RH  022%=      5-min Rain = 0
KSM2 192328Z 19007KT 21/M02 A2982 RMK A01 T02071019  RH  022%=      5-min Rain = 0
KSM2 192329Z 19007KT 21/M02 A2982 RMK A01 T02061019  RH  022%=      5-min Rain = 0
KSM2 192330Z 19008KT 21/M02 A2982 RMK A01 T02051019  RH  022%=      5-min Rain = 0
KSM2 192331Z 19007KT 21/M02 A2982 RMK A01 T02051019  RH  022%=      5-min Rain = 0
KSM2 192332Z 18007KT 20/M02 A2983 RMK A01 T02041019  RH  022%=      5-min Rain = 0
KSM2 192333Z 19007KT 20/M02 A2982 RMK A01 T02031019  RH  022%=      5-min Rain = 0
KSM2 192334Z 19007KT 20/M02 A2982 RMK A01 T02021019  RH  022%=      5-min Rain = 0
KSM2 192335Z 18006KT 20/M02 A2982 RMK A01 T02011019  RH  023%=      5-min Rain = 0
KSM2 192336Z 19007KT 20/M02 A2982 RMK A01 T02001019  RH  023%=      5-min Rain = 0
KSM2 192337Z 19007KT 20/M02 A2982 RMK A01 T01991019  RH  023%=      5-min Rain = 0
KSM2 192338Z 18006KT 20/M02 A2982 RMK A01 T01991019  RH  023%=      5-min Rain = 0
KSM2 192339Z 19007KT 20/M02 A2982 RMK A01 T01981019  RH  023%=      5-min Rain = 0
KSM2 192340Z 19007KT 20/M02 A2982 RMK A01 T01971019  RH  023%=      5-min Rain = 0
KSM2 192341Z 19007KT 20/M02 A2982 RMK A01 T01961019  RH  023%=      5-min Rain = 0
KSM2 192342Z 19007KT 20/M02 A2982 RMK A01 T01951019  RH  023%=      5-min Rain = 0
KSM2 192343Z 19006KT 19/M02 A2982 RMK A01 T01941019  RH  024%=      5-min Rain = 0
KSM2 192344Z 18006KT 19/M02 A2982 RMK A01 T01931018  RH  024%=      5-min Rain = 0
KSM2 192345Z 19006KT 19/M02 A2982 RMK A01 T01921018  RH  024%=      5-min Rain = 0
KSM2 192346Z 18006KT 19/M02 A2982 RMK A01 T01921018  RH  024%=      5-min Rain = 0
KSM2 192347Z 18006KT 19/M02 A2982 RMK A01 T01911018  RH  024%=      5-min Rain = 0
KSM2 192348Z 18006KT 19/M02 A2982 RMK A01 T01901018  RH  024%=      5-min Rain = 0
KSM2 192349Z 19006KT 19/M02 A2982 RMK A01 T01891018  RH  025%=      5-min Rain = 0
KSM2 192350Z 18006KT 19/M02 A2982 RMK A01 T01891018  RH  025%=      5-min Rain = 0
KSM2 192351Z 18006KT 19/M02 A2982 RMK A01 T01881018  RH  025%=      5-min Rain = 0
KSM2 192352Z 18007KT 19/M02 A2982 RMK A01 T01881018  RH  025%=      5-min Rain = 0
KSM2 192353Z 18006KT 19/M02 A2982 RMK A01 T01881018  RH  025%=      5-min Rain = 0
KSM2 192354Z 18005KT 19/M02 A2982 RMK A01 T01871018  RH  025%=      5-min Rain = 0
KSM2 192355Z 19006KT 19/M02 A2982 RMK A01 T01861018  RH  025%=      5-min Rain = 0
KSM2 192356Z 19006KT 19/M02 A2982 RMK A01 T01851018  RH  025%=      5-min Rain = 0
KSM2 192357Z 18006KT 18/M02 A2982 RMK A01 T01841019  RH  025%=      5-min Rain = 0
KSM2 192358Z 18007KT 18/M02 A2982 RMK A01 T01821019  RH  025%=      5-min Rain = 0
KSM2 192359Z 19007KT 18/M02 A2983 RMK A01 T01821019  RH  026%=      5-min Rain = 0
KSM2 200000Z 19007KT 18/M02 A2983 RMK A01 T01811019  RH  026%=      5-min Rain = 0
KSM2 200001Z 19007KT 18/M02 A2983 RMK A01 T01801019  RH  026%=      5-min Rain = 0
KSM2 200002Z 18007KT 18/M02 A2983 RMK A01 T01791019  RH  026%=      5-min Rain = 0
KSM2 200003Z 18007KT 18/M02 A2983 RMK A01 T01781019  RH  026%=      5-min Rain = 0
KSM2 200004Z 19007KT 18/M02 A2983 RMK A01 T01771019  RH  026%=      5-min Rain = 0
KSM2 200005Z 18007KT 18/M02 A2983 RMK A01 T01771019  RH  026%=      5-min Rain = 0
KSM2 200006Z 19006KT 18/M02 A2983 RMK A01 T01751019  RH  027%=      5-min Rain = 0
KSM2 200007Z 19006KT 17/M02 A2983 RMK A01 T01741019  RH  027%=      5-min Rain = 0
KSM2 200008Z 19007KT 17/M02 A2983 RMK A01 T01741018  RH  027%=      5-min Rain = 0
KSM2 200009Z 19006KT 17/M02 A2983 RMK A01 T01741018  RH  027%=      5-min Rain = 0
KSM2 200010Z 19007KT 17/M02 A2983 RMK A01 T01741018  RH  027%=      5-min Rain = 0
KSM2 200011Z 18007KT 17/M02 A2983 RMK A01 T01731018  RH  027%=      5-min Rain = 0
KSM2 200012Z 18007KT 17/M02 A2983 RMK A01 T01731018  RH  027%=      5-min Rain = 0
KSM2 200013Z 19007KT 17/M02 A2983 RMK A01 T01731018  RH  027%=      5-min Rain = 0
KSM2 200014Z 18007KT 17/M02 A2983 RMK A01 T01741017  RH  027%=      5-min Rain = 0
KSM2 200015Z 18007KT 17/M02 A2983 RMK A01 T01731018  RH  027%=      5-min Rain = 0
KSM2 200016Z 18007KT 17/M02 A2983 RMK A01 T01731017  RH  027%=      5-min Rain = 0
KSM2 200017Z 18007KT 17/M02 A2983 RMK A01 T01731018  RH  027%=      5-min Rain = 0
KSM2 200018Z 19007KT 17/M02 A2983 RMK A01 T01731018  RH  027%=      5-min Rain = 0
KSM2 200019Z 18007KT 17/M02 A2983 RMK A01 T01731018  RH  027%=      5-min Rain = 0
KSM2 200020Z 18007KT 17/M02 A2983 RMK A01 T01721018  RH  027%=      5-min Rain = 0
KSM2 200021Z 18008KT 17/M02 A2983 RMK A01 T01731018  RH  027%=      5-min Rain = 0
KSM2 200022Z 19007KT 17/M02 A2983 RMK A01 T01741018  RH  027%=      5-min Rain = 0
KSM2 200023Z 18007KT 18/M02 A2983 RMK A01 T01751018  RH  027%=      5-min Rain = 0
KSM2 200024Z 18006KT 18/M02 A2983 RMK A01 T01751018  RH  027%=      5-min Rain = 0
KSM2 200025Z 18007KT 18/M02 A2983 RMK A01 T01751018  RH  027%=      5-min Rain = 0
KSM2 200026Z 18007KT 18/M02 A2983 RMK A01 T01751018  RH  027%=      5-min Rain = 0
KSM2 200027Z 18007KT 18/M02 A2983 RMK A01 T01771018  RH  026%=      5-min Rain = 0
KSM2 200028Z 18006KT 18/M02 A2983 RMK A01 T01781018  RH  026%=      5-min Rain = 0
KSM2 200029Z 19006KT 18/M02 A2983 RMK A01 T01771018  RH  026%=      5-min Rain = 0
KSM2 200030Z 18006KT 18/M02 A2983 RMK A01 T01771018  RH  026%=      5-min Rain = 0
KSM2 200031Z 19006KT 18/M02 A2983 RMK A01 T01761019  RH  026%=      5-min Rain = 0
KSM2 200032Z 18006KT 18/M02 A2983 RMK A01 T01761018  RH  027%=      5-min Rain = 0
KSM2 200033Z 18006KT 18/M02 A2983 RMK A01 T01751019  RH  027%=      5-min Rain = 0
KSM2 200034Z 18006KT 17/M02 A2983 RMK A01 T01741019  RH  027%=      5-min Rain = 0
KSM2 200035Z 18006KT 17/M02 A2983 RMK A01 T01741019  RH  027%=      5-min Rain = 0
KSM2 200036Z 18006KT 17/M02 A2983 RMK A01 T01731019  RH  027%=      5-min Rain = 0
KSM2 200037Z 17006KT 17/M02 A2983 RMK A01 T01731019  RH  027%=      5-min Rain = 0
KSM2 200038Z 17006KT 17/M02 A2983 RMK A01 T01741019  RH  027%=      5-min Rain = 0
KSM2 200039Z 18006KT 18/M02 A2983 RMK A01 T01751019  RH  027%=      5-min Rain = 0
KSM2 200040Z 18005KT 18/M02 A2983 RMK A01 T01751019  RH  027%=      5-min Rain = 0
KSM2 200041Z 18006KT 18/M02 A2983 RMK A01 T01751019  RH  027%=      5-min Rain = 0
KSM2 200042Z 18006KT 17/M02 A2983 RMK A01 T01741019  RH  027%=      5-min Rain = 0
KSM2 200043Z 17006KT 17/M02 A2983 RMK A01 T01741019  RH  027%=      5-min Rain = 0
KSM2 200044Z 17006KT 17/M02 A2983 RMK A01 T01731019  RH  027%=      5-min Rain = 0
KSM2 200045Z 17005KT 17/M02 A2983 RMK A01 T01731019  RH  027%=      5-min Rain = 0
KSM2 200046Z 17005KT 17/M02 A2983 RMK A01 T01721019  RH  027%=      5-min Rain = 0
KSM2 200047Z 17006KT 17/M02 A2983 RMK A01 T01711019  RH  027%=      5-min Rain = 0
KSM2 200048Z 16006KT 17/M02 A2983 RMK A01 T01711018  RH  027%=      5-min Rain = 0
KSM2 200049Z 16005KT 17/M02 A2982 RMK A01 T01711019  RH  027%=      5-min Rain = 0
KSM2 200050Z 16005KT 17/M02 A2982 RMK A01 T01711019  RH  027%=      5-min Rain = 0
KSM2 200051Z 16005KT 17/M02 A2982 RMK A01 T01701019  RH  027%=      5-min Rain = 0
KSM2 200052Z 15004KT 17/M02 A2982 RMK A01 T01701019  RH  027%=      5-min Rain = 0
KSM2 200053Z 15005KT 17/M02 A2982 RMK A01 T01701019  RH  027%=      5-min Rain = 0
KSM2 200054Z 15005KT 17/M02 A2983 RMK A01 T01701019  RH  028%=      5-min Rain = 0
KSM2 200055Z 15005KT 17/M02 A2983 RMK A01 T01681019  RH  028%=      5-min Rain = 0
KSM2 200056Z 15004KT 17/M02 A2983 RMK A01 T01681018  RH  028%=      5-min Rain = 0
KSM2 200057Z 15004KT 17/M02 A2983 RMK A01 T01671018  RH  028%=      5-min Rain = 0
KSM2 200058Z 16005KT 17/M02 A2982 RMK A01 T01661018  RH  028%=      5-min Rain = 0
KSM2 200059Z 16006KT 17/M02 A2982 RMK A01 T01661017  RH  029%=      5-min Rain = 0
KSM2 200100Z 17006KT 17/M02 A2983 RMK A01 T01671017  RH  028%=      5-min Rain = 0
KSM2 200101Z 17006KT 17/M02 A2983 RMK A01 T01671017  RH  028%=      5-min Rain = 0
KSM2 200102Z 17006KT 17/M02 A2983 RMK A01 T01681016  RH  028%=      5-min Rain = 0
KSM2 200103Z 17006KT 17/M02 A2983 RMK A01 T01691016  RH  028%=      5-min Rain = 0
KSM2 200104Z 17006KT 17/M02 A2983 RMK A01 T01691016  RH  028%=      5-min Rain = 0
KSM2 200105Z 18006KT 17/M02 A2983 RMK A01 T01701016  RH  028%=      5-min Rain = 0
KSM2 200106Z 18006KT 17/M02 A2983 RMK A01 T01691016  RH  028%=      5-min Rain = 0
KSM2 200107Z 19006KT 17/M02 A2983 RMK A01 T01681016  RH  029%=      5-min Rain = 0
KSM2 200108Z 19006KT 17/M02 A2983 RMK A01 T01661016  RH  029%=      5-min Rain = 0
KSM2 200109Z 19007KT 16/M02 A2983 RMK A01 T01641016  RH  029%=      5-min Rain = 0
KSM2 200110Z 19006KT 16/M02 A2983 RMK A01 T01611016  RH  030%=      5-min Rain = 0
KSM2 200111Z 19006KT 16/M02 A2983 RMK A01 T01581017  RH  030%=      5-min Rain = 0
KSM2 200112Z 18006KT 16/M02 A2983 RMK A01 T01571017  RH  030%=      5-min Rain = 0
KSM2 200113Z 18006KT 16/M02 A2983 RMK A01 T01551016  RH  031%=      5-min Rain = 0
KSM2 200114Z 18005KT 15/M02 A2983 RMK A01 T01531017  RH  031%=      5-min Rain = 0
KSM2 200115Z 18006KT 15/M02 A2983 RMK A01 T01521017  RH  031%=      5-min Rain = 0
KSM2 200116Z 17006KT 15/M02 A2983 RMK A01 T01521016  RH  031%=      5-min Rain = 0
KSM2 200117Z 16004KT 15/M02 A2983 RMK A01 T01521016  RH  032%=      5-min Rain = 0
KSM2 200118Z 16004KT 15/M02 A2983 RMK A01 T01531015  RH  031%=      5-min Rain = 0
KSM2 200119Z 16004KT 16/M02 A2983 RMK A01 T01551015  RH  031%=      5-min Rain = 0
KSM2 200120Z 16004KT 16/M02 A2983 RMK A01 T01561015  RH  031%=      5-min Rain = 0
KSM2 200121Z 16004KT 16/M02 A2983 RMK A01 T01561015  RH  031%=      5-min Rain = 0
KSM2 200122Z 16005KT 16/M02 A2983 RMK A01 T01561016  RH  031%=      5-min Rain = 0
KSM2 200123Z 16006KT 16/M02 A2983 RMK A01 T01561015  RH  031%=      5-min Rain = 0
KSM2 200124Z 15006KT 16/M02 A2983 RMK A01 T01561015  RH  031%=      5-min Rain = 0
KSM2 200125Z 15006KT 16/M02 A2983 RMK A01 T01551015  RH  031%=      5-min Rain = 0
KSM2 200126Z 16007KT 16/M02 A2983 RMK A01 T01561015  RH  031%=      5-min Rain = 0
KSM2 200127Z 17006KT 16/M01 A2983 RMK A01 T01571014  RH  031%=      5-min Rain = 0
KSM2 200128Z 17006KT 16/M01 A2983 RMK A01 T01571014  RH  031%=      5-min Rain = 0
KSM2 200129Z 17006KT 16/M01 A2983 RMK A01 T01581014  RH  031%=      5-min Rain = 0
KSM2 200130Z 17006KT 16/M01 A2983 RMK A01 T01581014  RH  031%=      5-min Rain = 0
KSM2 200131Z 17006KT 16/M01 A2983 RMK A01 T01591014  RH  031%=      5-min Rain = 0
KSM2 200132Z 17006KT 16/M01 A2984 RMK A01 T01601014  RH  030%=      5-min Rain = 0
KSM2 200133Z 16006KT 16/M01 A2984 RMK A01 T01601014  RH  030%=      5-min Rain = 0
KSM2 200134Z 17006KT 16/M01 A2984 RMK A01 T01591014  RH  031%=      5-min Rain = 0
KSM2 200135Z 17006KT 16/M01 A2984 RMK A01 T01581014  RH  031%=      5-min Rain = 0
KSM2 200136Z 16006KT 16/M01 A2984 RMK A01 T01581014  RH  031%=      5-min Rain = 0
KSM2 200137Z 16006KT 16/M01 A2984 RMK A01 T01581014  RH  031%=      5-min Rain = 0
KSM2 200138Z 17007KT 16/M01 A2984 RMK A01 T01581014  RH  031%=      5-min Rain = 0
KSM2 200139Z 17007KT 16/M01 A2983 RMK A01 T01581014  RH  031%=      5-min Rain = 0
KSM2 200140Z 18006KT 16/M01 A2983 RMK A01 T01591014  RH  031%=      5-min Rain = 0
KSM2 200141Z 17007KT 16/M01 A2984 RMK A01 T01591013  RH  031%=      5-min Rain = 0
KSM2 200142Z 18006KT 16/M01 A2984 RMK A01 T01601014  RH  031%=      5-min Rain = 0
KSM2 200143Z 18007KT 16/M01 A2984 RMK A01 T01601013  RH  031%=      5-min Rain = 0
KSM2 200144Z 18006KT 16/M01 A2984 RMK A01 T01591013  RH  031%=      5-min Rain = 0
KSM2 200145Z 18007KT 16/M01 A2984 RMK A01 T01581013  RH  031%=      5-min Rain = 0
KSM2 200146Z 18006KT 16/M01 A2984 RMK A01 T01561013  RH  031%=      5-min Rain = 0
KSM2 200147Z 18006KT 16/M01 A2984 RMK A01 T01551013  RH  032%=      5-min Rain = 0
KSM2 200148Z 18005KT 15/M01 A2984 RMK A01 T01531013  RH  032%=      5-min Rain = 0
KSM2 200149Z 17005KT 15/M01 A2984 RMK A01 T01521013  RH  032%=      5-min Rain = 0
KSM2 200150Z 17006KT 15/M01 A2984 RMK A01 T01501013  RH  033%=      5-min Rain = 0
KSM2 200151Z 17006KT 15/M01 A2984 RMK A01 T01501013  RH  033%=      5-min Rain = 0
KSM2 200152Z 18006KT 15/M01 A2984 RMK A01 T01511012  RH  033%=      5-min Rain = 0
KSM2 200153Z 18005KT 15/M01 A2984 RMK A01 T01521012  RH  032%=      5-min Rain = 0
KSM2 200154Z 18005KT 15/M01 A2984 RMK A01 T01521012  RH  032%=      5-min Rain = 0
KSM2 200155Z 18005KT 15/M01 A2984 RMK A01 T01521012  RH  032%=      5-min Rain = 0
KSM2 200156Z 18005KT 15/M01 A2984 RMK A01 T01511012  RH  033%=      5-min Rain = 0
KSM2 200157Z 18005KT 15/M01 A2984 RMK A01 T01481012  RH  033%=      5-min Rain = 0
KSM2 200158Z 18005KT 15/M01 A2984 RMK A01 T01461012  RH  034%=      5-min Rain = 0
KSM2 200159Z 18005KT 15/M01 A2984 RMK A01 T01451012  RH  034%=      5-min Rain = 0
KSM2 200200Z 18005KT 15/M01 A2984 RMK A01 T01451012  RH  034%=      5-min Rain = 0
KSM2 200201Z 18005KT 14/M01 A2984 RMK A01 T01441012  RH  034%=      5-min Rain = 0
KSM2 200202Z 18005KT 14/M01 A2984 RMK A01 T01421012  RH  035%=      5-min Rain = 0
KSM2 200203Z 18005KT 14/M01 A2984 RMK A01 T01411012  RH  035%=      5-min Rain = 0
KSM2 200204Z 18006KT 14/M01 A2984 RMK A01 T01401012  RH  035%=      5-min Rain = 0
KSM2 200205Z 18006KT 14/M01 A2984 RMK A01 T01391012  RH  035%=      5-min Rain = 0
KSM2 200206Z 18006KT 14/M01 A2984 RMK A01 T01391011  RH  035%=      5-min Rain = 0
KSM2 200207Z 18006KT 14/M01 A2984 RMK A01 T01401011  RH  035%=      5-min Rain = 0
KSM2 200208Z 18006KT 14/M01 A2984 RMK A01 T01401011  RH  035%=      5-min Rain = 0
KSM2 200209Z 18005KT 14/M01 A2984 RMK A01 T01401011  RH  035%=      5-min Rain = 0
KSM2 200210Z 17006KT 14/M01 A2984 RMK A01 T01391011  RH  036%=      5-min Rain = 0
KSM2 200211Z 18005KT 14/M01 A2984 RMK A01 T01401010  RH  035%=      5-min Rain = 0
KSM2 200212Z 18006KT 14/M01 A2984 RMK A01 T01421010  RH  035%=      5-min Rain = 0
KSM2 200213Z 18006KT 14/M01 A2984 RMK A01 T01431009  RH  035%=      5-min Rain = 0
KSM2 200214Z 18006KT 14/M01 A2984 RMK A01 T01431009  RH  035%=      5-min Rain = 0
KSM2 200215Z 18006KT 14/M01 A2984 RMK A01 T01441009  RH  035%=      5-min Rain = 0
KSM2 200216Z 18006KT 14/M01 A2984 RMK A01 T01441009  RH  035%=      5-min Rain = 0
KSM2 200217Z 18006KT 14/M01 A2984 RMK A01 T01441009  RH  035%=      5-min Rain = 0
KSM2 200218Z 18006KT 14/M01 A2984 RMK A01 T01441008  RH  035%=      5-min Rain = 0
KSM2 200219Z 18006KT 14/M01 A2984 RMK A01 T01441008  RH  035%=      5-min Rain = 0
KSM2 200220Z 17006KT 14/M01 A2984 RMK A01 T01441007  RH  035%=      5-min Rain = 0
KSM2 200221Z 17006KT 14/M01 A2984 RMK A01 T01441007  RH  035%=      5-min Rain = 0
KSM2 200222Z 17006KT 15/M01 A2984 RMK A01 T01451007  RH  035%=      5-min Rain = 0
KSM2 200223Z 17007KT 15/M01 A2984 RMK A01 T01471006  RH  035%=      5-min Rain = 0
KSM2 200224Z 18007KT 15/M01 A2984 RMK A01 T01481006  RH  035%=      5-min Rain = 0
KSM2 200225Z 17006KT 15/M01 A2984 RMK A01 T01501006  RH  034%=      5-min Rain = 0
KSM2 200226Z 17007KT 15/M01 A2984 RMK A01 T01511006  RH  034%=      5-min Rain = 0
KSM2 200227Z 18006KT 15/M01 A2984 RMK A01 T01521006  RH  034%=      5-min Rain = 0
KSM2 200228Z 17006KT 15/M01 A2984 RMK A01 T01521006  RH  034%=      5-min Rain = 0
KSM2 200229Z 17006KT 15/M01 A2984 RMK A01 T01521006  RH  034%=      5-min Rain = 0
KSM2 200230Z 17006KT 15/M01 A2984 RMK A01 T01531006  RH  034%=      5-min Rain = 0
KSM2 200231Z 17006KT 15/M01 A2984 RMK A01 T01521006  RH  034%=      5-min Rain = 0
KSM2 200232Z 17007KT 15/M01 A2984 RMK A01 T01521006  RH  034%=      5-min Rain = 0
KSM2 200233Z 17007KT 15/M01 A2984 RMK A01 T01521006  RH  034%=      5-min Rain = 0
KSM2 200234Z 16008KT 15/M01 A2984 RMK A01 T01511006  RH  034%=      5-min Rain = 0
KSM2 200235Z 17007KT 15/M01 A2984 RMK A01 T01511006  RH  034%=      5-min Rain = 0
KSM2 200236Z 16007KT 15/M01 A2984 RMK A01 T01511005  RH  034%=      5-min Rain = 0
KSM2 200237Z 16006KT 15/M01 A2984 RMK A01 T01501005  RH  034%=      5-min Rain = 0
KSM2 200238Z 17008KT 15/M01 A2984 RMK A01 T01501005  RH  035%=      5-min Rain = 0
KSM2 200239Z 17007KT 15/M01 A2984 RMK A01 T01501005  RH  035%=      5-min Rain = 0
KSM2 200240Z 16008KT 15/M00 A2984 RMK A01 T01501004  RH  035%=      5-min Rain = 0
KSM2 200241Z 17009KT 15/M00 A2984 RMK A01 T01501004  RH  035%=      5-min Rain = 0
KSM2 200242Z 16008KT 15/M00 A2984 RMK A01 T01511004  RH  035%=      5-min Rain = 0
KSM2 200243Z 16009KT 15/M00 A2984 RMK A01 T01531004  RH  034%=      5-min Rain = 0
KSM2 200244Z 17008KT 15/M00 A2984 RMK A01 T01531004  RH  034%=      5-min Rain = 0
KSM2 200245Z 17008KT 15/M00 A2983 RMK A01 T01541003  RH  034%=      5-min Rain = 0
KSM2 200246Z 17007KT 15/M00 A2983 RMK A01 T01541004  RH  034%=      5-min Rain = 0
KSM2 200247Z 17007KT 15/M00 A2983 RMK A01 T01541004  RH  034%=      5-min Rain = 0
KSM2 200248Z 17007KT 15/M00 A2983 RMK A01 T01541004  RH  034%=      5-min Rain = 0
KSM2 200249Z 17008KT 15/M00 A2983 RMK A01 T01531004  RH  034%=      5-min Rain = 0
KSM2 200250Z 17007KT 15/M00 A2983 RMK A01 T01541004  RH  034%=      5-min Rain = 0
KSM2 200251Z 17008KT 15/M00 A2983 RMK A01 T01541004  RH  034%=      5-min Rain = 0
KSM2 200252Z 17007KT 15/M01 A2983 RMK A01 T01541005  RH  034%=      5-min Rain = 0
KSM2 200253Z 17007KT 15/M01 A2983 RMK A01 T01541005  RH  034%=      5-min Rain = 0
KSM2 200254Z 17007KT 15/M01 A2983 RMK A01 T01541005  RH  034%=      5-min Rain = 0
KSM2 200255Z 17008KT 15/M01 A2983 RMK A01 T01541005  RH  034%=      5-min Rain = 0
KSM2 200256Z 17008KT 15/M01 A2983 RMK A01 T01541005  RH  034%=      5-min Rain = 0
KSM2 200257Z 17008KT 15/M01 A2983 RMK A01 T01541005  RH  034%=      5-min Rain = 0
KSM2 200258Z 17008KT 15/M01 A2984 RMK A01 T01541005  RH  034%=      5-min Rain = 0
KSM2 200259Z 17009KT 15/M01 A2984 RMK A01 T01541005  RH  034%=      5-min Rain = 0
KSM2 200300Z 17008KT 16/M01 A2984 RMK A01 T01551005  RH  034%=      5-min Rain = 0
KSM2 200301Z 17008KT 16/M01 A2983 RMK A01 T01551005  RH  034%=      5-min Rain = 0
KSM2 200302Z 17007KT 15/M01 A2983 RMK A01 T01541005  RH  034%=      5-min Rain = 0
KSM2 200303Z 17009KT 15/M01 A2983 RMK A01 T01531005  RH  034%=      5-min Rain = 0
KSM2 200304Z 17008KT 15/M01 A2983 RMK A01 T01531005  RH  034%=      5-min Rain = 0
KSM2 200305Z 17009KT 15/M00 A2983 RMK A01 T01521004  RH  034%=      5-min Rain = 0
KSM2 200306Z 17008KT 15/M01 A2983 RMK A01 T01521005  RH  034%=      5-min Rain = 0
KSM2 200307Z 18008KT 15/M00 A2983 RMK A01 T01511004  RH  034%=      5-min Rain = 0
KSM2 200308Z 17008KT 15/M01 A2983 RMK A01 T01501005  RH  035%=      5-min Rain = 0
KSM2 200309Z 18008KT 15/M00 A2983 RMK A01 T01501004  RH  035%=      5-min Rain = 0
KSM2 200310Z 18008KT 15/M00 A2983 RMK A01 T01501004  RH  035%=      5-min Rain = 0
KSM2 200311Z 18007KT 15/M00 A2983 RMK A01 T01481004  RH  035%=      5-min Rain = 0
KSM2 200312Z 18008KT 15/M00 A2983 RMK A01 T01471004  RH  035%=      5-min Rain = 0
KSM2 200313Z 18008KT 15/M00 A2983 RMK A01 T01471004  RH  035%=      5-min Rain = 0
KSM2 200314Z 18008KT 15/M00 A2983 RMK A01 T01471004  RH  035%=      5-min Rain = 0
KSM2 200315Z 18007KT 15/M00 A2983 RMK A01 T01461004  RH  036%=      5-min Rain = 0
KSM2 200316Z 18008KT 15/M00 A2983 RMK A01 T01451004  RH  036%=      5-min Rain = 0
KSM2 200317Z 18007KT 14/M00 A2983 RMK A01 T01431004  RH  036%=      5-min Rain = 0
KSM2 200318Z 18008KT 14/M00 A2983 RMK A01 T01421004  RH  037%=      5-min Rain = 0
KSM2 200319Z 18007KT 14/M00 A2983 RMK A01 T01421004  RH  037%=      5-min Rain = 0
KSM2 200320Z 18008KT 14/M00 A2983 RMK A01 T01421003  RH  037%=      5-min Rain = 0
KSM2 200321Z 18007KT 14/M00 A2983 RMK A01 T01421004  RH  037%=      5-min Rain = 0
KSM2 200322Z 18007KT 14/M00 A2983 RMK A01 T01411004  RH  037%=      5-min Rain = 0
KSM2 200323Z 18006KT 14/M00 A2983 RMK A01 T01391004  RH  037%=      5-min Rain = 0
KSM2 200324Z 18007KT 14/M00 A2983 RMK A01 T01381004  RH  038%=      5-min Rain = 0
KSM2 200325Z 18007KT 14/M00 A2983 RMK A01 T01381003  RH  038%=      5-min Rain = 0
KSM2 200326Z 18006KT 14/M00 A2983 RMK A01 T01381003  RH  038%=      5-min Rain = 0
KSM2 200327Z 18007KT 14/M00 A2983 RMK A01 T01371003  RH  038%=      5-min Rain = 0
KSM2 200328Z 18007KT 14/M00 A2983 RMK A01 T01351004  RH  038%=      5-min Rain = 0
KSM2 200329Z 18007KT 13/M00 A2983 RMK A01 T01341003  RH  039%=      5-min Rain = 0
KSM2 200330Z 19007KT 13/M00 A2983 RMK A01 T01341003  RH  039%=      5-min Rain = 0
KSM2 200331Z 19007KT 13/M00 A2984 RMK A01 T01321004  RH  039%=      5-min Rain = 0
KSM2 200332Z 19006KT 13/M00 A2984 RMK A01 T01321003  RH  039%=      5-min Rain = 0
KSM2 200333Z 19007KT 13/M00 A2984 RMK A01 T01311004  RH  040%=      5-min Rain = 0
KSM2 200334Z 19007KT 13/M00 A2984 RMK A01 T01301003  RH  040%=      5-min Rain = 0
KSM2 200335Z 19007KT 13/M00 A2984 RMK A01 T01281004  RH  040%=      5-min Rain = 0
KSM2 200336Z 18007KT 13/M00 A2984 RMK A01 T01271004  RH  040%=      5-min Rain = 0
KSM2 200337Z 18008KT 13/M00 A2984 RMK A01 T01281003  RH  041%=      5-min Rain = 0
KSM2 200338Z 19007KT 13/M00 A2984 RMK A01 T01291002  RH  040%=      5-min Rain = 0
KSM2 200339Z 18007KT 13/M00 A2984 RMK A01 T01301002  RH  040%=      5-min Rain = 0
KSM2 200340Z 19008KT 13/M00 A2984 RMK A01 T01311002  RH  040%=      5-min Rain = 0
KSM2 200341Z 17007KT 13/M00 A2984 RMK A01 T01311002  RH  040%=      5-min Rain = 0
KSM2 200342Z 17007KT 13/M00 A2984 RMK A01 T01321001  RH  040%=      5-min Rain = 0
KSM2 200343Z 17007KT 13/M00 A2984 RMK A01 T01341001  RH  040%=      5-min Rain = 0
KSM2 200344Z 18007KT 14/00 A2984 RMK A01 T013600-0  RH  039%=      5-min Rain = 0
KSM2 200345Z 18008KT 14/00 A2984 RMK A01 T01380000  RH  039%=      5-min Rain = 0
KSM2 200346Z 18008KT 14/00 A2984 RMK A01 T013700-0  RH  039%=      5-min Rain = 0
KSM2 200347Z 17007KT 14/00 A2984 RMK A01 T013600-0  RH  039%=      5-min Rain = 0
KSM2 200348Z 17007KT 14/00 A2984 RMK A01 T01360000  RH  039%=      5-min Rain = 0
KSM2 200349Z 18007KT 14/00 A2984 RMK A01 T013600-0  RH  039%=      5-min Rain = 0
KSM2 200350Z 17007KT 14/00 A2984 RMK A01 T01360000  RH  039%=      5-min Rain = 0
KSM2 200351Z 17007KT 14/00 A2984 RMK A01 T01360000  RH  039%=      5-min Rain = 0
KSM2 200352Z 17008KT 14/00 A2984 RMK A01 T01350000  RH  040%=      5-min Rain = 0
KSM2 200353Z 17008KT 14/00 A2984 RMK A01 T01350001  RH  040%=      5-min Rain = 0
KSM2 200354Z 17009KT 14/00 A2984 RMK A01 T01360001  RH  040%=      5-min Rain = 0
KSM2 200355Z 18009KT 14/00 A2984 RMK A01 T01370002  RH  040%=      5-min Rain = 0
KSM2 200356Z 17008KT 14/00 A2984 RMK A01 T01370002  RH  039%=      5-min Rain = 0
KSM2 200357Z 17008KT 14/00 A2984 RMK A01 T01370002  RH  039%=      5-min Rain = 0
KSM2 200358Z 18008KT 14/00 A2984 RMK A01 T01370002  RH  040%=      5-min Rain = 0
KSM2 200359Z 17007KT 14/00 A2984 RMK A01 T01370002  RH  040%=      5-min Rain = 0
KSM2 200400Z 17008KT 14/00 A2984 RMK A01 T01360002  RH  040%=      5-min Rain = 0
KSM2 200401Z 17007KT 14/00 A2984 RMK A01 T01350002  RH  040%=      5-min Rain = 0
KSM2 200402Z 18008KT 13/00 A2984 RMK A01 T01340003  RH  040%=      5-min Rain = 0
KSM2 200403Z 18008KT 13/00 A2984 RMK A01 T01340002  RH  041%=      5-min Rain = 0
KSM2 200404Z 18008KT 13/00 A2984 RMK A01 T01340003  RH  041%=      5-min Rain = 0
KSM2 200405Z 18008KT 13/00 A2984 RMK A01 T01340003  RH  041%=      5-min Rain = 0
KSM2 200406Z 18009KT 13/00 A2984 RMK A01 T01340003  RH  041%=      5-min Rain = 0
KSM2 200407Z 18008KT 14/00 A2984 RMK A01 T01350004  RH  041%=      5-min Rain = 0
KSM2 200408Z 18009KT 14/00 A2984 RMK A01 T01350004  RH  041%=      5-min Rain = 0
KSM2 200409Z 18009KT 14/01 A2984 RMK A01 T01350006  RH  041%=      5-min Rain = 0
KSM2 200410Z 18009KT 14/01 A2984 RMK A01 T01360007  RH  041%=      5-min Rain = 0
KSM2 200411Z 18011KT 14/01 A2984 RMK A01 T01360008  RH  041%=      5-min Rain = 0
KSM2 200412Z 18011KT 14/01 A2984 RMK A01 T01380010  RH  042%=      5-min Rain = 0
KSM2 200413Z 18010KT 14/01 A2984 RMK A01 T01390011  RH  042%=      5-min Rain = 0
KSM2 200414Z 18011KT 14/01 A2984 RMK A01 T01390012  RH  042%=      5-min Rain = 0
KSM2 200415Z 18010KT 14/01 A2984 RMK A01 T01390013  RH  042%=      5-min Rain = 0
KSM2 200416Z 18010KT 14/01 A2984 RMK A01 T01390014  RH  043%=      5-min Rain = 0
KSM2 200417Z 18010KT 14/02 A2984 RMK A01 T01400015  RH  043%=      5-min Rain = 0
KSM2 200418Z 18011KT 14/02 A2983 RMK A01 T01410016  RH  043%=      5-min Rain = 0
KSM2 200419Z 17011KT 14/02 A2984 RMK A01 T01410017  RH  043%=      5-min Rain = 0
KSM2 200420Z 18011KT 14/02 A2984 RMK A01 T01420018  RH  043%=      5-min Rain = 0
KSM2 200421Z 18010KT 14/02 A2983 RMK A01 T01420019  RH  043%=      5-min Rain = 0
KSM2 200422Z 18010KT 14/02 A2984 RMK A01 T01420020  RH  043%=      5-min Rain = 0
KSM2 200423Z 18011KT 14/02 A2983 RMK A01 T01420020  RH  044%=      5-min Rain = 0
KSM2 200424Z 18011KT 14/02 A2984 RMK A01 T01410020  RH  044%=      5-min Rain = 0
KSM2 200425Z 18010KT 14/02 A2984 RMK A01 T01410021  RH  044%=      5-min Rain = 0
KSM2 200426Z 18010KT 14/02 A2984 RMK A01 T01410021  RH  044%=      5-min Rain = 0
KSM2 200427Z 18008KT 14/02 A2984 RMK A01 T01400021  RH  045%=      5-min Rain = 0
KSM2 200428Z 18009KT 14/02 A2984 RMK A01 T01390022  RH  045%=      5-min Rain = 0
KSM2 200429Z 18008KT 14/02 A2984 RMK A01 T01390023  RH  045%=      5-min Rain = 0
KSM2 200430Z 18008KT 14/02 A2984 RMK A01 T01380023  RH  046%=      5-min Rain = 0
KSM2 200431Z 19009KT 14/02 A2984 RMK A01 T01380024  RH  046%=      5-min Rain = 0
KSM2 200432Z 18009KT 14/02 A2984 RMK A01 T01380024  RH  046%=      5-min Rain = 0
KSM2 200433Z 18009KT 14/03 A2984 RMK A01 T01370025  RH  046%=      5-min Rain = 0
KSM2 200434Z 18009KT 14/03 A2984 RMK A01 T01380025  RH  047%=      5-min Rain = 0
KSM2 200435Z 18009KT 14/03 A2984 RMK A01 T01380026  RH  047%=      5-min Rain = 0
KSM2 200436Z 18010KT 14/03 A2984 RMK A01 T01380026  RH  047%=      5-min Rain = 0
KSM2 200437Z 18009KT 14/03 A2984 RMK A01 T01380027  RH  047%=      5-min Rain = 0
KSM2 200438Z 18010KT 14/03 A2984 RMK A01 T01390028  RH  047%=      5-min Rain = 0
KSM2 200439Z 18009KT 14/03 A2984 RMK A01 T01390029  RH  047%=      5-min Rain = 0
KSM2 200440Z 18008KT 14/03 A2984 RMK A01 T01390029  RH  048%=      5-min Rain = 0
KSM2 200441Z 18010KT 14/03 A2984 RMK A01 T01390030  RH  048%=      5-min Rain = 0
KSM2 200442Z 18008KT 14/03 A2984 RMK A01 T01390030  RH  048%=      5-min Rain = 0
KSM2 200443Z 19010KT 14/03 A2984 RMK A01 T01390031  RH  048%=      5-min Rain = 0
KSM2 200444Z 18010KT 14/03 A2984 RMK A01 T01390032  RH  048%=      5-min Rain = 0
KSM2 200445Z 19010KT 14/03 A2984 RMK A01 T01380032  RH  049%=      5-min Rain = 0
KSM2 200446Z 19010KT 14/03 A2984 RMK A01 T01390033  RH  049%=      5-min Rain = 0
KSM2 200447Z 19010KT 14/03 A2984 RMK A01 T01390033  RH  049%=      5-min Rain = 0
KSM2 200448Z 18010KT 14/03 A2984 RMK A01 T01390034  RH  049%=      5-min Rain = 0
KSM2 200449Z 18010G15KT 14/03 A2984 RMK A01 T01390034  RH  049%=      5-min Rain = 0
KSM2 200450Z 19011KT 14/04 A2984 RMK A01 T01390035  RH  049%=      5-min Rain = 0
KSM2 200451Z 19010KT 14/04 A2984 RMK A01 T01400036  RH  050%=      5-min Rain = 0
KSM2 200452Z 19012KT 14/04 A2984 RMK A01 T01400036  RH  050%=      5-min Rain = 0
KSM2 200453Z 19012KT 14/04 A2984 RMK A01 T01400037  RH  050%=      5-min Rain = 0
KSM2 200454Z 19012KT 14/04 A2984 RMK A01 T01410038  RH  050%=      5-min Rain = 0
KSM2 200455Z 19011KT 14/04 A2984 RMK A01 T01410038  RH  050%=      5-min Rain = 0
KSM2 200456Z 19011KT 14/04 A2984 RMK A01 T01410038  RH  050%=      5-min Rain = 0
KSM2 200457Z 19010KT 14/04 A2984 RMK A01 T01400039  RH  050%=      5-min Rain = 0
KSM2 200458Z 19010KT 14/04 A2984 RMK A01 T01400039  RH  051%=      5-min Rain = 0
KSM2 200459Z 19010KT 14/04 A2984 RMK A01 T01400039  RH  051%=      5-min Rain = 0
KSM2 200500Z 19009KT 14/04 A2984 RMK A01 T01400040  RH  051%=      5-min Rain = 0
KSM2 200501Z 18010KT 14/04 A2984 RMK A01 T01400040  RH  051%=      5-min Rain = 0
KSM2 200502Z 18010KT 14/04 A2984 RMK A01 T01400041  RH  051%=      5-min Rain = 0
KSM2 200503Z 19010KT 14/04 A2984 RMK A01 T01410042  RH  051%=      5-min Rain = 0
KSM2 200504Z 18010KT 14/04 A2984 RMK A01 T01410042  RH  051%=      5-min Rain = 0
KSM2 200505Z 19009KT 14/04 A2984 RMK A01 T01410043  RH  052%=      5-min Rain = 0
KSM2 200506Z 18010KT 14/04 A2984 RMK A01 T01420044  RH  052%=      5-min Rain = 0
KSM2 200507Z 18011KT 14/05 A2985 RMK A01 T01420045  RH  052%=      5-min Rain = 0
KSM2 200508Z 18010KT 14/05 A2985 RMK A01 T01430046  RH  052%=      5-min Rain = 0
KSM2 200509Z 19011KT 14/05 A2985 RMK A01 T01440046  RH  052%=      5-min Rain = 0
KSM2 200510Z 19011KT 14/05 A2985 RMK A01 T01440047  RH  052%=      5-min Rain = 0
KSM2 200511Z 19011KT 14/05 A2985 RMK A01 T01440047  RH  052%=      5-min Rain = 0
KSM2 200512Z 19012KT 15/05 A2985 RMK A01 T01450047  RH  052%=      5-min Rain = 0
KSM2 200513Z 19011KT 15/05 A2985 RMK A01 T01450047  RH  052%=      5-min Rain = 0
KSM2 200514Z 19012KT 15/05 A2985 RMK A01 T01450047  RH  052%=      5-min Rain = 0
KSM2 200515Z 19012KT 15/05 A2985 RMK A01 T01450048  RH  052%=      5-min Rain = 0
KSM2 200516Z 19012KT 15/05 A2985 RMK A01 T01450048  RH  052%=      5-min Rain = 0
KSM2 200517Z 19010KT 14/05 A2985 RMK A01 T01440048  RH  052%=      5-min Rain = 0
KSM2 200518Z 19010KT 14/05 A2985 RMK A01 T01440048  RH  053%=      5-min Rain = 0
KSM2 200519Z 19011KT 14/05 A2985 RMK A01 T01440049  RH  053%=      5-min Rain = 0
KSM2 200520Z 19010KT 14/05 A2985 RMK A01 T01440049  RH  053%=      5-min Rain = 0
KSM2 200521Z 19010KT 14/05 A2984 RMK A01 T01440049  RH  053%=      5-min Rain = 0
KSM2 200522Z 19010KT 14/05 A2984 RMK A01 T01430049  RH  053%=      5-min Rain = 0
KSM2 200523Z 19010KT 14/05 A2984 RMK A01 T01430049  RH  053%=      5-min Rain = 0
KSM2 200524Z 19009KT 14/05 A2984 RMK A01 T01430049  RH  053%=      5-min Rain = 0
KSM2 200525Z 19009KT 14/05 A2984 RMK A01 T01420049  RH  053%=      5-min Rain = 0
KSM2 200526Z 19010KT 14/05 A2984 RMK A01 T01420049  RH  054%=      5-min Rain = 0
KSM2 200527Z 19009KT 14/05 A2984 RMK A01 T01420049  RH  054%=      5-min Rain = 0
KSM2 200528Z 19009KT 14/05 A2984 RMK A01 T01420050  RH  054%=      5-min Rain = 0
KSM2 200529Z 19009KT 14/05 A2984 RMK A01 T01420049  RH  054%=      5-min Rain = 0
KSM2 200530Z 19009KT 14/05 A2984 RMK A01 T01410049  RH  054%=      5-min Rain = 0
KSM2 200531Z 19008KT 14/05 A2984 RMK A01 T01410049  RH  054%=      5-min Rain = 0
KSM2 200532Z 18008KT 14/05 A2984 RMK A01 T01410050  RH  054%=      5-min Rain = 0
KSM2 200533Z 19008KT 14/05 A2984 RMK A01 T01410050  RH  054%=      5-min Rain = 0
KSM2 200534Z 18008KT 14/05 A2984 RMK A01 T01410050  RH  054%=      5-min Rain = 0
KSM2 200535Z 18008KT 14/05 A2984 RMK A01 T01410049  RH  054%=      5-min Rain = 0
KSM2 200536Z 19009KT 14/05 A2984 RMK A01 T01410050  RH  054%=      5-min Rain = 0
KSM2 200537Z 19009KT 14/05 A2984 RMK A01 T01410050  RH  054%=      5-min Rain = 0
KSM2 200538Z 19009KT 14/05 A2984 RMK A01 T01410050  RH  054%=      5-min Rain = 0
KSM2 200539Z 19009KT 14/05 A2984 RMK A01 T01400050  RH  054%=      5-min Rain = 0
KSM2 200540Z 19010KT 14/05 A2984 RMK A01 T01400050  RH  055%=      5-min Rain = 0
KSM2 200541Z 20011KT 14/05 A2984 RMK A01 T01400050  RH  055%=      5-min Rain = 0
KSM2 200542Z 19010KT 14/05 A2984 RMK A01 T01400050  RH  055%=      5-min Rain = 0
KSM2 200543Z 19010KT 14/05 A2984 RMK A01 T01400050  RH  055%=      5-min Rain = 0
KSM2 200544Z 19011KT 14/05 A2984 RMK A01 T01410051  RH  055%=      5-min Rain = 0
KSM2 200545Z 19011KT 14/05 A2984 RMK A01 T01420051  RH  054%=      5-min Rain = 0
KSM2 200546Z 19011KT 14/05 A2984 RMK A01 T01420051  RH  054%=      5-min Rain = 0
KSM2 200547Z 18012KT 14/05 A2984 RMK A01 T01420051  RH  054%=      5-min Rain = 0
KSM2 200548Z 19013KT 14/05 A2984 RMK A01 T01420051  RH  054%=      5-min Rain = 0
KSM2 200549Z 19011KT 14/05 A2984 RMK A01 T01420051  RH  054%=      5-min Rain = 0
KSM2 200550Z 19012KT 14/05 A2984 RMK A01 T01430052  RH  054%=      5-min Rain = 0
KSM2 200551Z 19012KT 14/05 A2984 RMK A01 T01430052  RH  054%=      5-min Rain = 0
KSM2 200552Z 19013KT 14/05 A2984 RMK A01 T01430052  RH  054%=      5-min Rain = 0
KSM2 200553Z 19012KT 14/05 A2984 RMK A01 T01430052  RH  054%=      5-min Rain = 0
KSM2 200554Z 19012KT 14/05 A2984 RMK A01 T01430053  RH  054%=      5-min Rain = 0
KSM2 200555Z 19013KT 14/05 A2984 RMK A01 T01430053  RH  054%=      5-min Rain = 0
KSM2 200556Z 19013KT 14/05 A2984 RMK A01 T01430053  RH  054%=      5-min Rain = 0
KSM2 200557Z 19014KT 14/05 A2984 RMK A01 T01430053  RH  055%=      5-min Rain = 0
KSM2 200558Z 19012KT 14/05 A2984 RMK A01 T01430053  RH  055%=      5-min Rain = 0
KSM2 200559Z 19013KT 14/05 A2984 RMK A01 T01430053  RH  055%=      5-min Rain = 0

Page generated in 0.1187 seconds.